Wetterdaten: Freitag, 25.10.2019
Datum Zeit Temp. Aussen Temp. o. S. Temp +5cm Feuchte Auss Luftdruck Regen Sonnenschein Regendauer Solar Windben Empfang
25.10.2019 00:00 14,0 C 12,8 C 12,2 C 85 % 1012,6 hPa 0,0 l/m 0 min 0 min 0 W/m 6,4 km/h (2 Bft) 94,29 %
25.10.2019 00:02 14,0 C 12,8 C 12,2 C 85 % 1012,7 hPa 0,0 l/m 0 min 0 min 0 W/m 0,0 km/h (0 Bft) 15,38 %
25.10.2019 00:04 13,9 C 12,8 C 12,2 C 85 % 1012,6 hPa 0,0 l/m 0 min 0 min 0 W/m 6,4 km/h (2 Bft) 71,79 %
25.10.2019 00:08 13,9 C 12,8 C 12,2 C 85 % 1012,6 hPa 0,0 l/m 0 min 0 min 0 W/m 6,4 km/h (2 Bft) 94,68 %
25.10.2019 00:10 13,9 C 12,8 C 12,2 C 85 % 1012,6 hPa 0,0 l/m 0 min 0 min 0 W/m 3,2 km/h (1 Bft) 95,74 %
25.10.2019 00:12 13,9 C 12,8 C 12,2 C 85 % 1012,7 hPa 0,0 l/m 0 min 0 min 0 W/m 6,4 km/h (2 Bft) 97,83 %
25.10.2019 00:14 13,8 C 12,8 C 12,2 C 85 % 1012,6 hPa 0,0 l/m 0 min 0 min 0 W/m 3,2 km/h (1 Bft) 100,00 %
25.10.2019 00:16 13,8 C 12,8 C 12,2 C 85 % 1012,7 hPa 0,0 l/m 0 min 0 min 0 W/m 12,9 km/h (3 Bft) 97,87 %
25.10.2019 00:18 13,8 C 12,8 C 12,2 C 85 % 1012,7 hPa 0,0 l/m 0 min 0 min 0 W/m 6,4 km/h (2 Bft) 97,87 %
25.10.2019 00:20 13,8 C 12,8 C 12,8 C 85 % 1012,7 hPa 0,0 l/m 0 min 0 min 0 W/m 12,9 km/h (3 Bft) 93,62 %
25.10.2019 00:22 13,8 C 13,3 C 12,8 C 85 % 1012,7 hPa 0,0 l/m 0 min 0 min 0 W/m 6,4 km/h (2 Bft) 97,87 %
25.10.2019 00:24 13,8 C 13,3 C 12,8 C 85 % 1012,8 hPa 0,0 l/m 0 min 0 min 0 W/m 6,4 km/h (2 Bft) 97,83 %
25.10.2019 00:26 13,8 C 13,3 C 12,8 C 85 % 1012,8 hPa 0,0 l/m 0 min 0 min 0 W/m 3,2 km/h (1 Bft) 95,74 %
25.10.2019 00:28 13,8 C 13,3 C 12,8 C 85 % 1012,9 hPa 0,0 l/m 0 min 0 min 0 W/m 6,4 km/h (2 Bft) 97,87 %
25.10.2019 00:30 13,8 C 13,3 C 12,8 C 85 % 1012,9 hPa 0,0 l/m 0 min 0 min 0 W/m 12,9 km/h (3 Bft) 100,00 %
25.10.2019 00:32 13,8 C 13,3 C 12,8 C 86 % 1012,9 hPa 0,0 l/m 0 min 0 min 0 W/m 6,4 km/h (2 Bft) 100,00 %
25.10.2019 00:34 13,8 C 13,3 C 12,8 C 86 % 1012,9 hPa 0,0 l/m 0 min 0 min 0 W/m 6,4 km/h (2 Bft) 95,65 %
25.10.2019 00:36 13,8 C 13,3 C 12,8 C 86 % 1012,9 hPa 0,0 l/m 0 min 0 min 0 W/m 12,9 km/h (3 Bft) 97,87 %
25.10.2019 00:38 13,8 C 13,3 C 12,8 C 86 % 1012,9 hPa 0,0 l/m 0 min 0 min 0 W/m 12,9 km/h (3 Bft) 95,65 %
25.10.2019 00:40 13,8 C 13,3 C 12,8 C 86 % 1012,8 hPa 0,0 l/m 0 min 0 min 0 W/m 12,9 km/h (3 Bft) 95,74 %
25.10.2019 00:42 13,8 C 13,3 C 12,8 C 86 % 1012,9 hPa 0,0 l/m 0 min 0 min 0 W/m 12,9 km/h (3 Bft) 97,87 %
25.10.2019 00:44 13,8 C 13,3 C 12,8 C 86 % 1012,9 hPa 0,0 l/m 0 min 0 min 0 W/m 12,9 km/h (3 Bft) 95,74 %
25.10.2019 00:46 13,9 C 13,3 C 12,8 C 86 % 1012,9 hPa 0,0 l/m 0 min 0 min 0 W/m 16,1 km/h (3 Bft) 100,00 %
25.10.2019 00:48 13,9 C 13,9 C 12,8 C 86 % 1013,0 hPa 0,0 l/m 0 min 0 min 0 W/m 16,1 km/h (3 Bft) 93,48 %
25.10.2019 00:50 13,9 C 13,9 C 13,3 C 86 % 1013,0 hPa 0,0 l/m 0 min 0 min 0 W/m 6,4 km/h (2 Bft) 100,00 %
25.10.2019 00:52 13,9 C 13,9 C 12,8 C 86 % 1013,0 hPa 0,0 l/m 0 min 0 min 0 W/m 6,4 km/h (2 Bft) 100,00 %
25.10.2019 00:54 13,9 C 13,9 C 13,3 C 86 % 1013,0 hPa 0,0 l/m 0 min 0 min 0 W/m 12,9 km/h (3 Bft) 100,00 %
25.10.2019 00:56 14,0 C 13,9 C 13,3 C 86 % 1013,1 hPa 0,0 l/m 0 min 0 min 0 W/m 6,4 km/h (2 Bft) 97,87 %
25.10.2019 00:58 14,0 C 13,9 C 13,3 C 86 % 1013,0 hPa 0,0 l/m 0 min 0 min 0 W/m 12,9 km/h (3 Bft) 100,00 %
25.10.2019 01:00 14,1 C 13,9 C 13,3 C 86 % 1013,1 hPa 0,0 l/m 0 min 0 min 0 W/m 12,9 km/h (3 Bft) 97,87 %
25.10.2019 01:02 14,1 C 13,9 C 13,3 C 86 % 1013,1 hPa 0,0 l/m 0 min 0 min 0 W/m 16,1 km/h (3 Bft) 93,62 %
25.10.2019 01:04 14,1 C 13,9 C 13,3 C 85 % 1013,1 hPa 0,0 l/m 0 min 0 min 0 W/m 12,9 km/h (3 Bft) 97,87 %
25.10.2019 01:06 14,1 C 13,9 C 13,3 C 85 % 1013,0 hPa 0,0 l/m 0 min 0 min 0 W/m 16,1 km/h (3 Bft) 95,74 %
25.10.2019 01:08 14,2 C 13,9 C 13,3 C 85 % 1013,0 hPa 0,0 l/m 0 min 0 min 0 W/m 16,1 km/h (3 Bft) 97,87 %
25.10.2019 01:10 14,2 C 13,9 C 13,3 C 85 % 1013,1 hPa 0,0 l/m 0 min 0 min 0 W/m 16,1 km/h (3 Bft) 95,65 %
25.10.2019 01:12 14,3 C 13,9 C 13,3 C 85 % 1013,1 hPa 0,0 l/m 0 min 0 min 0 W/m 16,1 km/h (3 Bft) 97,87 %
25.10.2019 01:14 14,3 C 13,9 C 13,3 C 85 % 1013,1 hPa 0,0 l/m 0 min 0 min 0 W/m 16,1 km/h (3 Bft) 100,00 %
25.10.2019 01:16 14,3 C 13,9 C 13,3 C 85 % 1013,1 hPa 0,0 l/m 0 min 0 min 0 W/m 12,9 km/h (3 Bft) 97,87 %
25.10.2019 01:18 14,3 C 13,9 C 13,3 C 85 % 1013,0 hPa 0,0 l/m 0 min 0 min 0 W/m 19,3 km/h (3 Bft) 100,00 %
25.10.2019 01:20 14,3 C 13,9 C 13,3 C 85 % 1013,1 hPa 0,0 l/m 0 min 0 min 0 W/m 16,1 km/h (3 Bft) 100,00 %
25.10.2019 01:22 14,3 C 13,9 C 13,3 C 85 % 1013,1 hPa 0,0 l/m 0 min 0 min 0 W/m 19,3 km/h (3 Bft) 97,83 %
25.10.2019 01:24 14,3 C 13,9 C 13,3 C 85 % 1013,1 hPa 0,0 l/m 0 min 0 min 0 W/m 12,9 km/h (3 Bft) 95,74 %
25.10.2019 01:26 14,3 C 13,9 C 13,3 C 85 % 1013,2 hPa 0,0 l/m 0 min 0 min 0 W/m 16,1 km/h (3 Bft) 97,87 %
25.10.2019 01:28 14,3 C 13,9 C 13,3 C 85 % 1013,2 hPa 0,0 l/m 0 min 0 min 0 W/m 12,9 km/h (3 Bft) 95,74 %
25.10.2019 01:30 14,4 C 13,9 C 13,3 C 85 % 1013,3 hPa 0,0 l/m 0 min 0 min 0 W/m 12,9 km/h (3 Bft) 100,00 %
25.10.2019 01:32 14,4 C 13,9 C 13,3 C 85 % 1013,3 hPa 0,0 l/m 0 min 0 min 0 W/m 16,1 km/h (3 Bft) 95,65 %
25.10.2019 01:34 14,4 C 13,9 C 13,3 C 84 % 1013,4 hPa 0,0 l/m 0 min 0 min 0 W/m 19,3 km/h (3 Bft) 95,74 %
25.10.2019 01:36 14,4 C 13,9 C 13,3 C 84 % 1013,4 hPa 0,0 l/m 0 min 0 min 0 W/m 12,9 km/h (3 Bft) 97,87 %
25.10.2019 01:38 14,4 C 13,9 C 13,3 C 84 % 1013,5 hPa 0,0 l/m 0 min 0 min 0 W/m 6,4 km/h (2 Bft) 95,74 %
25.10.2019 01:40 14,4 C 13,9 C 13,3 C 84 % 1013,5 hPa 0,0 l/m 0 min 0 min 0 W/m 12,9 km/h (3 Bft) 97,87 %
25.10.2019 01:42 14,5 C 13,9 C 13,3 C 84 % 1013,4 hPa 0,0 l/m 0 min 0 min 0 W/m 12,9 km/h (3 Bft) 89,36 %
25.10.2019 01:44 14,5 C 13,9 C 13,3 C 84 % 1013,4 hPa 0,0 l/m 0 min 0 min 0 W/m 12,9 km/h (3 Bft) 95,74 %
25.10.2019 01:46 14,5 C 13,9 C 13,3 C 84 % 1013,5 hPa 0,0 l/m 0 min 0 min 0 W/m 12,9 km/h (3 Bft) 97,83 %
25.10.2019 01:48 14,5 C 13,9 C 13,3 C 84 % 1013,5 hPa 0,0 l/m 0 min 0 min 0 W/m 12,9 km/h (3 Bft) 97,87 %
25.10.2019 01:50 14,5 C 13,9 C 13,3 C 84 % 1013,6 hPa 0,0 l/m 0 min 0 min 0 W/m 6,4 km/h (2 Bft) 93,62 %
25.10.2019 01:52 14,5 C 13,9 C 13,3 C 85 % 1013,5 hPa 0,0 l/m 0 min 0 min 0 W/m 16,1 km/h (3 Bft) 91,49 %
25.10.2019 01:54 14,5 C 13,9 C 13,3 C 85 % 1013,6 hPa 0,0 l/m 0 min 0 min 0 W/m 6,4 km/h (2 Bft) 89,36 %
25.10.2019 01:56 14,5 C 13,9 C 13,3 C 85 % 1013,7 hPa 0,0 l/m 0 min 0 min 0 W/m 12,9 km/h (3 Bft) 93,48 %
25.10.2019 01:58 14,5 C 13,9 C 13,3 C 85 % 1013,7 hPa 0,0 l/m 0 min 0 min 0 W/m 12,9 km/h (3 Bft) 97,87 %
25.10.2019 02:00 14,5 C 13,9 C 13,3 C 85 % 1013,6 hPa 0,0 l/m 0 min 0 min 0 W/m 12,9 km/h (3 Bft) 91,49 %
25.10.2019 02:02 14,6 C 13,9 C 13,3 C 85 % 1013,7 hPa 0,0 l/m 0 min 0 min 0 W/m 16,1 km/h (3 Bft) 91,49 %
25.10.2019 02:04 14,6 C 13,9 C 13,3 C 85 % 1013,8 hPa 0,0 l/m 0 min 0 min 0 W/m 19,3 km/h (3 Bft) 91,49 %
25.10.2019 02:06 14,6 C 13,9 C 13,3 C 85 % 1013,8 hPa 0,0 l/m 0 min 0 min 0 W/m 12,9 km/h (3 Bft) 93,62 %
25.10.2019 02:08 14,6 C 13,9 C 13,3 C 85 % 1013,8 hPa 0,0 l/m 0 min 0 min 0 W/m 19,3 km/h (3 Bft) 84,78 %
25.10.2019 02:10 14,6 C 13,9 C 13,3 C 86 % 1013,9 hPa 0,0 l/m 0 min 0 min 0 W/m 19,3 km/h (3 Bft) 89,36 %
25.10.2019 02:12 14,6 C 13,9 C 13,3 C 86 % 1013,9 hPa 0,0 l/m 0 min 0 min 0 W/m 19,3 km/h (3 Bft) 93,62 %
25.10.2019 02:14 14,6 C 13,9 C 13,3 C 86 % 1013,9 hPa 0,0 l/m 0 min 0 min 0 W/m 12,9 km/h (3 Bft) 93,62 %
25.10.2019 02:16 14,7 C 13,9 C 13,3 C 86 % 1014,0 hPa 0,0 l/m 0 min 0 min 0 W/m 19,3 km/h (3 Bft) 91,49 %
25.10.2019 02:18 14,7 C 13,9 C 13,3 C 86 % 1013,9 hPa 0,0 l/m 0 min 0 min 0 W/m 12,9 km/h (3 Bft) 93,62 %
25.10.2019 02:20 14,7 C 13,9 C 13,3 C 86 % 1014,0 hPa 0,0 l/m 0 min 0 min 0 W/m 16,1 km/h (3 Bft) 91,30 %
25.10.2019 02:22 14,7 C 13,9 C 13,3 C 86 % 1014,0 hPa 0,0 l/m 0 min 0 min 0 W/m 16,1 km/h (3 Bft) 91,49 %
25.10.2019 02:24 14,8 C 13,9 C 13,3 C 86 % 1014,0 hPa 0,0 l/m 0 min 0 min 0 W/m 12,9 km/h (3 Bft) 91,49 %
25.10.2019 02:26 14,8 C 13,9 C 13,3 C 86 % 1014,1 hPa 0,0 l/m 0 min 0 min 0 W/m 22,5 km/h (4 Bft) 89,36 %
25.10.2019 02:28 14,8 C 13,9 C 13,3 C 86 % 1014,1 hPa 0,0 l/m 0 min 0 min 0 W/m 19,3 km/h (3 Bft) 91,49 %
25.10.2019 02:30 14,8 C 13,9 C 13,9 C 86 % 1014,1 hPa 0,0 l/m 0 min 0 min 0 W/m 16,1 km/h (3 Bft) 91,49 %
25.10.2019 02:32 14,8 C 13,9 C 13,9 C 86 % 1014,2 hPa 0,0 l/m 0 min 0 min 0 W/m 25,7 km/h (4 Bft) 91,30 %
25.10.2019 02:34 14,8 C 14,4 C 13,9 C 86 % 1014,1 hPa 0,0 l/m 0 min 0 min 0 W/m 25,7 km/h (4 Bft) 95,74 %
25.10.2019 02:36 14,8 C 14,4 C 13,9 C 86 % 1014,2 hPa 0,0 l/m 0 min 0 min 0 W/m 16,1 km/h (3 Bft) 93,62 %
25.10.2019 02:38 14,9 C 14,4 C 13,9 C 86 % 1014,1 hPa 0,0 l/m 0 min 0 min 0 W/m 16,1 km/h (3 Bft) 95,74 %
25.10.2019 02:40 14,9 C 14,4 C 13,9 C 86 % 1014,1 hPa 0,0 l/m 0 min 0 min 0 W/m 19,3 km/h (3 Bft) 95,74 %
25.10.2019 02:42 14,9 C 14,4 C 13,9 C 86 % 1014,2 hPa 0,0 l/m 0 min 0 min 0 W/m 19,3 km/h (3 Bft) 93,62 %
25.10.2019 02:44 14,9 C 14,4 C 13,9 C 86 % 1014,2 hPa 0,0 l/m 0 min 0 min 0 W/m 19,3 km/h (3 Bft) 95,65 %
25.10.2019 02:46 14,9 C 14,4 C 13,9 C 86 % 1014,3 hPa 0,0 l/m 0 min 0 min 0 W/m 16,1 km/h (3 Bft) 97,87 %
25.10.2019 02:48 14,9 C 14,4 C 13,9 C 86 % 1014,3 hPa 0,0 l/m 0 min 0 min 0 W/m 19,3 km/h (3 Bft) 97,87 %
25.10.2019 02:50 14,9 C 14,4 C 13,9 C 86 % 1014,3 hPa 0,0 l/m 0 min 0 min 0 W/m 19,3 km/h (3 Bft) 95,74 %
25.10.2019 02:52 14,9 C 14,4 C 13,9 C 86 % 1014,4 hPa 0,0 l/m 0 min 0 min 0 W/m 19,3 km/h (3 Bft) 95,74 %
25.10.2019 02:54 14,9 C 14,4 C 13,9 C 86 % 1014,4 hPa 0,0 l/m 0 min 0 min 0 W/m 16,1 km/h (3 Bft) 95,65 %
25.10.2019 02:56 14,9 C 14,4 C 13,9 C 86 % 1014,4 hPa 0,0 l/m 0 min 0 min 0 W/m 12,9 km/h (3 Bft) 97,87 %
25.10.2019 02:58 15,0 C 14,4 C 13,9 C 86 % 1014,5 hPa 0,0 l/m 0 min 0 min 0 W/m 16,1 km/h (3 Bft) 97,87 %
25.10.2019 03:00 15,0 C 14,4 C 13,9 C 86 % 1014,4 hPa 0,0 l/m 0 min 0 min 0 W/m 16,1 km/h (3 Bft) 97,87 %
25.10.2019 03:02 15,0 C 14,4 C 13,9 C 86 % 1014,6 hPa 0,0 l/m 0 min 0 min 0 W/m 22,5 km/h (4 Bft) 95,74 %
25.10.2019 03:04 15,0 C 14,4 C 13,9 C 86 % 1014,5 hPa 0,0 l/m 0 min 0 min 0 W/m 22,5 km/h (4 Bft) 97,87 %
25.10.2019 03:06 15,0 C 14,4 C 13,9 C 86 % 1014,6 hPa 0,0 l/m 0 min 0 min 0 W/m 22,5 km/h (4 Bft) 100,00 %
25.10.2019 03:08 15,0 C 14,4 C 13,9 C 86 % 1014,6 hPa 0,0 l/m 0 min 0 min 0 W/m 29,0 km/h (5 Bft) 97,87 %
25.10.2019 03:10 15,0 C 14,4 C 13,9 C 86 % 1014,6 hPa 0,0 l/m 0 min 0 min 0 W/m 22,5 km/h (4 Bft) 97,87 %
25.10.2019 03:12 15,0 C 14,4 C 13,9 C 86 % 1014,6 hPa 0,0 l/m 0 min 0 min 0 W/m 19,3 km/h (3 Bft) 100,00 %
25.10.2019 03:14 15,1 C 14,4 C 13,9 C 86 % 1014,6 hPa 0,0 l/m 0 min 0 min 0 W/m 19,3 km/h (3 Bft) 97,87 %
25.10.2019 03:16 15,1 C 14,4 C 13,9 C 86 % 1014,7 hPa 0,0 l/m 0 min 0 min 0 W/m 9,7 km/h (2 Bft) 100,00 %
25.10.2019 03:18 15,0 C 13,9 C 13,9 C 86 % 1014,7 hPa 0,0 l/m 0 min 0 min 0 W/m 16,1 km/h (3 Bft) 97,83 %
25.10.2019 03:20 15,0 C 13,9 C 13,9 C 86 % 1014,7 hPa 0,0 l/m 0 min 0 min 0 W/m 16,1 km/h (3 Bft) 100,00 %
25.10.2019 03:22 15,0 C 13,9 C 13,9 C 86 % 1014,6 hPa 0,0 l/m 0 min 0 min 0 W/m 19,3 km/h (3 Bft) 100,00 %
25.10.2019 03:24 15,0 C 13,9 C 13,3 C 86 % 1014,6 hPa 0,0 l/m 0 min 0 min 0 W/m 16,1 km/h (3 Bft) 100,00 %
25.10.2019 03:26 15,0 C 13,9 C 13,3 C 86 % 1014,7 hPa 0,0 l/m 0 min 0 min 0 W/m 29,0 km/h (5 Bft) 100,00 %
25.10.2019 03:28 15,0 C 13,9 C 13,3 C 86 % 1014,7 hPa 0,0 l/m 0 min 0 min 0 W/m 16,1 km/h (3 Bft) 97,87 %
25.10.2019 03:30 15,0 C 13,9 C 13,3 C 86 % 1014,8 hPa 0,0 l/m 0 min 0 min 0 W/m 19,3 km/h (3 Bft) 100,00 %
25.10.2019 03:32 14,9 C 13,9 C 13,3 C 86 % 1014,8 hPa 0,0 l/m 0 min 0 min 0 W/m 12,9 km/h (3 Bft) 100,00 %
25.10.2019 03:34 14,9 C 13,9 C 13,3 C 86 % 1014,8 hPa 0,0 l/m 0 min 0 min 0 W/m 19,3 km/h (3 Bft) 100,00 %
25.10.2019 03:36 14,9 C 13,9 C 13,3 C 86 % 1014,8 hPa 0,0 l/m 0 min 0 min 0 W/m 19,3 km/h (3 Bft) 100,00 %
25.10.2019 03:38 14,9 C 13,9 C 13,3 C 86 % 1014,8 hPa 0,0 l/m 0 min 0 min 0 W/m 19,3 km/h (3 Bft) 100,00 %
25.10.2019 03:40 14,9 C 13,9 C 13,3 C 86 % 1014,8 hPa 0,0 l/m 0 min 0 min 0 W/m 16,1 km/h (3 Bft) 100,00 %
25.10.2019 03:42 14,9 C 13,9 C 13,3 C 86 % 1015,0 hPa 0,0 l/m 0 min 0 min 0 W/m 22,5 km/h (4 Bft) 100,00 %
25.10.2019 03:44 14,9 C 13,9 C 13,3 C 86 % 1015,0 hPa 0,0 l/m 0 min 0 min 0 W/m 19,3 km/h (3 Bft) 100,00 %
25.10.2019 03:46 14,8 C 13,9 C 13,3 C 86 % 1015,0 hPa 0,0 l/m 0 min 0 min 0 W/m 12,9 km/h (3 Bft) 100,00 %
25.10.2019 03:48 14,8 C 13,9 C 13,3 C 86 % 1015,0 hPa 0,0 l/m 0 min 0 min 0 W/m 12,9 km/h (3 Bft) 100,00 %
25.10.2019 03:50 14,8 C 13,9 C 13,3 C 86 % 1015,1 hPa 0,0 l/m 0 min 0 min 0 W/m 9,7 km/h (2 Bft) 100,00 %
25.10.2019 03:52 14,8 C 13,9 C 13,3 C 86 % 1015,1 hPa 0,0 l/m 0 min 0 min 0 W/m 29,0 km/h (5 Bft) 100,00 %
25.10.2019 03:54 14,8 C 13,9 C 13,3 C 86 % 1015,0 hPa 0,0 l/m 0 min 0 min 0 W/m 16,1 km/h (3 Bft) 97,83 %
25.10.2019 03:56 14,7 C 13,3 C 13,3 C 86 % 1015,1 hPa 0,0 l/m 0 min 0 min 0 W/m 12,9 km/h (3 Bft) 97,87 %
25.10.2019 03:58 14,7 C 13,3 C 13,3 C 87 % 1015,1 hPa 0,0 l/m 0 min 0 min 0 W/m 16,1 km/h (3 Bft) 97,87 %
25.10.2019 04:00 14,7 C 13,3 C 13,3 C 87 % 1015,0 hPa 0,0 l/m 0 min 0 min 0 W/m 19,3 km/h (3 Bft) 100,00 %
25.10.2019 04:02 14,6 C 13,3 C 12,8 C 87 % 1015,0 hPa 0,0 l/m 0 min 0 min 0 W/m 16,1 km/h (3 Bft) 100,00 %
25.10.2019 04:04 14,6 C 13,9 C 13,3 C 87 % 1015,1 hPa 0,0 l/m 0 min 0 min 0 W/m 22,5 km/h (4 Bft) 95,65 %
25.10.2019 04:06 14,6 C 13,9 C 13,3 C 87 % 1015,1 hPa 0,0 l/m 0 min 0 min 0 W/m 29,0 km/h (5 Bft) 93,62 %
25.10.2019 04:08 14,6 C 13,3 C 13,3 C 87 % 1015,1 hPa 0,0 l/m 0 min 0 min 0 W/m 12,9 km/h (3 Bft) 100,00 %
25.10.2019 04:10 14,6 C 13,3 C 12,8 C 87 % 1015,1 hPa 0,0 l/m 0 min 0 min 0 W/m 16,1 km/h (3 Bft) 97,87 %
25.10.2019 04:12 14,5 C 13,3 C 12,8 C 87 % 1015,1 hPa 0,0 l/m 0 min 0 min 0 W/m 19,3 km/h (3 Bft) 95,74 %
25.10.2019 04:14 14,5 C 13,3 C 13,3 C 87 % 1015,2 hPa 0,0 l/m 0 min 0 min 0 W/m 22,5 km/h (4 Bft) 100,00 %
25.10.2019 04:16 14,5 C 13,3 C 13,3 C 87 % 1015,1 hPa 0,0 l/m 0 min 0 min 0 W/m 16,1 km/h (3 Bft) 97,83 %
25.10.2019 04:18 14,4 C 13,3 C 13,3 C 86 % 1015,2 hPa 0,0 l/m 0 min 0 min 0 W/m 12,9 km/h (3 Bft) 100,00 %
25.10.2019 04:20 14,4 C 13,3 C 12,8 C 86 % 1015,2 hPa 0,0 l/m 0 min 0 min 0 W/m 12,9 km/h (3 Bft) 100,00 %
25.10.2019 04:22 14,4 C 13,3 C 12,8 C 86 % 1015,3 hPa 0,0 l/m 0 min 0 min 0 W/m 19,3 km/h (3 Bft) 100,00 %
25.10.2019 04:24 14,4 C 13,3 C 12,8 C 86 % 1015,2 hPa 0,0 l/m 0 min 0 min 0 W/m 12,9 km/h (3 Bft) 100,00 %
25.10.2019 04:26 14,3 C 13,3 C 12,8 C 86 % 1015,2 hPa 0,0 l/m 0 min 0 min 0 W/m 12,9 km/h (3 Bft) 97,83 %
25.10.2019 04:28 14,3 C 13,3 C 12,8 C 86 % 1015,2 hPa 0,0 l/m 0 min 0 min 0 W/m 6,4 km/h (2 Bft) 100,00 %
25.10.2019 04:30 14,3 C 13,3 C 12,8 C 86 % 1015,3 hPa 0,0 l/m 0 min 0 min 0 W/m 16,1 km/h (3 Bft) 100,00 %
25.10.2019 04:32 14,3 C 13,3 C 12,8 C 86 % 1015,3 hPa 0,0 l/m 0 min 0 min 0 W/m 12,9 km/h (3 Bft) 100,00 %
25.10.2019 04:34 14,3 C 13,3 C 12,8 C 86 % 1015,3 hPa 0,0 l/m 0 min 0 min 0 W/m 12,9 km/h (3 Bft) 100,00 %
25.10.2019 04:36 14,3 C 13,3 C 12,8 C 86 % 1015,3 hPa 0,0 l/m 0 min 0 min 0 W/m 12,9 km/h (3 Bft) 100,00 %
25.10.2019 04:38 14,3 C 13,3 C 12,8 C 87 % 1015,3 hPa 0,0 l/m 0 min 0 min 0 W/m 9,7 km/h (2 Bft) 100,00 %
25.10.2019 04:40 14,3 C 13,3 C 12,8 C 87 % 1015,4 hPa 0,0 l/m 0 min 0 min 0 W/m 9,7 km/h (2 Bft) 100,00 %
25.10.2019 04:42 14,3 C 13,3 C 12,8 C 87 % 1015,4 hPa 0,0 l/m 0 min 0 min 0 W/m 12,9 km/h (3 Bft) 91,49 %
25.10.2019 04:44 14,3 C 13,3 C 12,8 C 87 % 1015,5 hPa 0,0 l/m 0 min 0 min 0 W/m 12,9 km/h (3 Bft) 95,74 %
25.10.2019 04:46 14,3 C 13,3 C 12,8 C 87 % 1015,5 hPa 0,0 l/m 0 min 0 min 0 W/m 9,7 km/h (2 Bft) 93,62 %
25.10.2019 04:48 14,3 C 13,3 C 12,8 C 87 % 1015,6 hPa 0,0 l/m 0 min 0 min 0 W/m 12,9 km/h (3 Bft) 95,74 %
25.10.2019 04:50 14,3 C 13,3 C 12,8 C 87 % 1015,5 hPa 0,0 l/m 0 min 0 min 0 W/m 22,5 km/h (4 Bft) 93,48 %
25.10.2019 04:52 14,3 C 13,3 C 12,8 C 87 % 1015,6 hPa 0,0 l/m 0 min 0 min 0 W/m 16,1 km/h (3 Bft) 95,74 %
25.10.2019 04:54 14,3 C 13,3 C 12,8 C 87 % 1015,6 hPa 0,0 l/m 0 min 0 min 0 W/m 22,5 km/h (4 Bft) 97,87 %
25.10.2019 04:56 14,3 C 13,3 C 12,8 C 87 % 1015,7 hPa 0,0 l/m 0 min 0 min 0 W/m 16,1 km/h (3 Bft) 95,74 %
25.10.2019 04:58 14,3 C 13,3 C 12,8 C 87 % 1015,7 hPa 0,0 l/m 0 min 0 min 0 W/m 22,5 km/h (4 Bft) 95,74 %
25.10.2019 05:00 14,3 C 13,3 C 12,8 C 87 % 1015,7 hPa 0,0 l/m 0 min 0 min 0 W/m 12,9 km/h (3 Bft) 93,62 %
25.10.2019 05:02 14,3 C 13,3 C 12,8 C 87 % 1015,7 hPa 0,0 l/m 0 min 0 min 0 W/m 16,1 km/h (3 Bft) 95,65 %
25.10.2019 05:04 14,3 C 13,3 C 12,8 C 87 % 1015,7 hPa 0,0 l/m 0 min 0 min 0 W/m 12,9 km/h (3 Bft) 93,62 %
25.10.2019 05:06 14,2 C 12,8 C 12,8 C 87 % 1015,7 hPa 0,0 l/m 0 min 0 min 0 W/m 12,9 km/h (3 Bft) 93,62 %
25.10.2019 05:08 14,2 C 12,8 C 12,8 C 87 % 1015,7 hPa 0,0 l/m 0 min 0 min 0 W/m 9,7 km/h (2 Bft) 93,62 %
25.10.2019 05:10 14,2 C 12,8 C 12,8 C 87 % 1015,7 hPa 0,0 l/m 0 min 0 min 0 W/m 12,9 km/h (3 Bft) 93,62 %
25.10.2019 05:12 14,1 C 12,8 C 12,8 C 87 % 1015,7 hPa 0,0 l/m 0 min 0 min 0 W/m 12,9 km/h (3 Bft) 89,36 %
25.10.2019 05:14 14,1 C 12,8 C 12,8 C 87 % 1015,8 hPa 0,0 l/m 0 min 0 min 0 W/m 19,3 km/h (3 Bft) 93,48 %
25.10.2019 05:16 14,1 C 12,8 C 12,8 C 87 % 1015,8 hPa 0,0 l/m 0 min 0 min 0 W/m 16,1 km/h (3 Bft) 91,49 %
25.10.2019 05:18 14,1 C 12,8 C 12,8 C 87 % 1015,9 hPa 0,0 l/m 0 min 0 min 0 W/m 9,7 km/h (2 Bft) 91,49 %
25.10.2019 05:20 14,1 C 12,8 C 12,2 C 87 % 1015,9 hPa 0,0 l/m 0 min 0 min 0 W/m 19,3 km/h (3 Bft) 95,74 %
25.10.2019 05:22 14,0 C 12,8 C 12,2 C 87 % 1015,9 hPa 0,0 l/m 0 min 0 min 0 W/m 12,9 km/h (3 Bft) 93,62 %
25.10.2019 05:24 14,0 C 12,8 C 12,2 C 87 % 1015,9 hPa 0,0 l/m 0 min 0 min 0 W/m 12,9 km/h (3 Bft) 93,62 %
25.10.2019 05:26 14,0 C 12,8 C 12,2 C 88 % 1016,0 hPa 0,0 l/m 0 min 0 min 0 W/m 12,9 km/h (3 Bft) 89,13 %
25.10.2019 05:28 14,0 C 12,8 C 12,2 C 88 % 1016,1 hPa 0,0 l/m 0 min 0 min 0 W/m 12,9 km/h (3 Bft) 95,74 %
25.10.2019 05:30 13,9 C 12,8 C 12,2 C 88 % 1016,1 hPa 0,0 l/m 0 min 0 min 0 W/m 12,9 km/h (3 Bft) 95,74 %
25.10.2019 05:32 13,9 C 12,8 C 12,2 C 88 % 1016,1 hPa 0,0 l/m 0 min 0 min 0 W/m 12,9 km/h (3 Bft) 95,74 %
25.10.2019 05:34 13,9 C 12,8 C 12,2 C 88 % 1016,1 hPa 0,0 l/m 0 min 0 min 0 W/m 12,9 km/h (3 Bft) 93,62 %
25.10.2019 05:36 13,9 C 12,8 C 12,2 C 88 % 1016,2 hPa 0,0 l/m 0 min 0 min 0 W/m 6,4 km/h (2 Bft) 95,65 %
25.10.2019 05:38 13,8 C 12,8 C 12,2 C 88 % 1016,2 hPa 0,0 l/m 0 min 0 min 0 W/m 6,4 km/h (2 Bft) 95,74 %
25.10.2019 05:40 13,8 C 12,8 C 12,2 C 88 % 1016,3 hPa 0,0 l/m 0 min 0 min 0 W/m 12,9 km/h (3 Bft) 95,74 %
25.10.2019 05:42 13,8 C 12,8 C 12,2 C 88 % 1016,3 hPa 0,0 l/m 0 min 0 min 0 W/m 6,4 km/h (2 Bft) 93,62 %
25.10.2019 05:44 13,8 C 12,8 C 12,2 C 88 % 1016,3 hPa 0,0 l/m 0 min 0 min 0 W/m 6,4 km/h (2 Bft) 91,49 %
25.10.2019 05:46 13,8 C 12,8 C 12,2 C 88 % 1016,3 hPa 0,0 l/m 0 min 0 min 0 W/m 9,7 km/h (2 Bft) 93,62 %
25.10.2019 05:48 13,7 C 12,8 C 12,2 C 88 % 1016,4 hPa 0,0 l/m 0 min 0 min 0 W/m 6,4 km/h (2 Bft) 93,48 %
25.10.2019 05:50 13,7 C 12,2 C 12,2 C 88 % 1016,4 hPa 0,0 l/m 0 min 0 min 0 W/m 6,4 km/h (2 Bft) 97,87 %
25.10.2019 05:52 13,7 C 12,2 C 12,2 C 88 % 1016,4 hPa 0,0 l/m 0 min 0 min 0 W/m 12,9 km/h (3 Bft) 93,62 %
25.10.2019 05:54 13,7 C 12,2 C 12,2 C 88 % 1016,5 hPa 0,0 l/m 0 min 0 min 0 W/m 9,7 km/h (2 Bft) 93,62 %
25.10.2019 05:56 13,6 C 12,2 C 12,2 C 88 % 1016,4 hPa 0,0 l/m 0 min 0 min 0 W/m 9,7 km/h (2 Bft) 89,36 %
25.10.2019 05:58 13,6 C 12,2 C 12,2 C 88 % 1016,5 hPa 0,0 l/m 0 min 0 min 0 W/m 12,9 km/h (3 Bft) 95,74 %
25.10.2019 06:00 13,6 C 12,2 C 12,2 C 88 % 1016,4 hPa 0,0 l/m 0 min 0 min 0 W/m 6,4 km/h (2 Bft) 93,48 %
25.10.2019 06:02 13,6 C 12,2 C 12,2 C 88 % 1016,5 hPa 0,0 l/m 0 min 0 min 0 W/m 12,9 km/h (3 Bft) 93,62 %
25.10.2019 06:04 13,6 C 12,2 C 11,7 C 88 % 1016,5 hPa 0,0 l/m 0 min 0 min 0 W/m 16,1 km/h (3 Bft) 97,87 %
25.10.2019 06:08 13,5 C 12,2 C 11,7 C 88 % 1016,5 hPa 0,0 l/m 0 min 0 min 0 W/m 9,7 km/h (2 Bft) 96,88 %
25.10.2019 06:10 13,4 C 12,2 C 11,7 C 88 % 1016,6 hPa 0,0 l/m 0 min 0 min 0 W/m 6,4 km/h (2 Bft) 100,00 %
25.10.2019 06:12 13,4 C 12,2 C 11,7 C 88 % 1016,5 hPa 0,0 l/m 0 min 0 min 0 W/m 6,4 km/h (2 Bft) 93,62 %
25.10.2019 06:14 13,4 C 12,2 C 11,7 C 88 % 1016,6 hPa 0,0 l/m 0 min 0 min 0 W/m 6,4 km/h (2 Bft) 100,00 %
25.10.2019 06:16 13,3 C 11,7 C 11,7 C 88 % 1016,6 hPa 0,0 l/m 0 min 0 min 0 W/m 12,9 km/h (3 Bft) 93,62 %
25.10.2019 06:18 13,3 C 11,7 C 11,7 C 88 % 1016,6 hPa 0,0 l/m 0 min 0 min 0 W/m 6,4 km/h (2 Bft) 97,87 %
25.10.2019 06:20 13,3 C 11,7 C 11,7 C 89 % 1016,6 hPa 0,0 l/m 0 min 0 min 0 W/m 6,4 km/h (2 Bft) 100,00 %
25.10.2019 06:22 13,3 C 11,7 C 11,7 C 89 % 1016,6 hPa 0,0 l/m 0 min 0 min 0 W/m 6,4 km/h (2 Bft) 97,87 %
25.10.2019 06:24 13,2 C 11,7 C 11,7 C 89 % 1016,7 hPa 0,0 l/m 0 min 0 min 0 W/m 12,9 km/h (3 Bft) 100,00 %
25.10.2019 06:26 13,2 C 11,7 C 11,7 C 89 % 1016,7 hPa 0,0 l/m 0 min 0 min 0 W/m 12,9 km/h (3 Bft) 97,83 %
25.10.2019 06:28 13,1 C 11,7 C 11,7 C 89 % 1016,7 hPa 0,0 l/m 0 min 0 min 0 W/m 12,9 km/h (3 Bft) 97,87 %
25.10.2019 06:30 13,1 C 11,7 C 11,7 C 89 % 1016,8 hPa 0,0 l/m 0 min 0 min 0 W/m 9,7 km/h (2 Bft) 100,00 %
25.10.2019 06:32 13,1 C 11,7 C 11,7 C 89 % 1016,8 hPa 0,0 l/m 0 min 0 min 0 W/m 16,1 km/h (3 Bft) 100,00 %
25.10.2019 06:34 13,1 C 11,7 C 11,7 C 89 % 1016,9 hPa 0,0 l/m 0 min 0 min 0 W/m 6,4 km/h (2 Bft) 100,00 %
25.10.2019 06:36 13,0 C 11,7 C 11,7 C 89 % 1016,9 hPa 0,0 l/m 0 min 0 min 0 W/m 6,4 km/h (2 Bft) 100,00 %
25.10.2019 06:38 13,0 C 11,7 C 11,7 C 89 % 1016,9 hPa 0,0 l/m 0 min 0 min 0 W/m 6,4 km/h (2 Bft) 100,00 %
25.10.2019 06:40 12,9 C 11,7 C 11,7 C 89 % 1017,0 hPa 0,0 l/m 0 min 0 min 0 W/m 6,4 km/h (2 Bft) 100,00 %
25.10.2019 06:42 12,9 C 11,7 C 11,7 C 89 % 1017,0 hPa 0,0 l/m 0 min 0 min 0 W/m 9,7 km/h (2 Bft) 100,00 %
25.10.2019 06:44 12,9 C 11,7 C 11,7 C 90 % 1017,1 hPa 0,0 l/m 0 min 0 min 0 W/m 9,7 km/h (2 Bft) 100,00 %
25.10.2019 06:46 12,9 C 11,7 C 11,7 C 90 % 1017,1 hPa 0,0 l/m 0 min 0 min 0 W/m 6,4 km/h (2 Bft) 100,00 %
25.10.2019 06:48 12,9 C 11,7 C 11,7 C 90 % 1017,1 hPa 0,0 l/m 0 min 0 min 0 W/m 12,9 km/h (3 Bft) 100,00 %
25.10.2019 06:50 12,8 C 11,7 C 11,7 C 90 % 1017,1 hPa 0,0 l/m 0 min 0 min 0 W/m 12,9 km/h (3 Bft) 100,00 %
25.10.2019 06:52 12,8 C 11,7 C 11,7 C 90 % 1017,2 hPa 0,0 l/m 0 min 0 min 0 W/m 12,9 km/h (3 Bft) 100,00 %
25.10.2019 06:54 12,8 C 11,7 C 11,7 C 90 % 1017,1 hPa 0,0 l/m 0 min 0 min 0 W/m 12,9 km/h (3 Bft) 100,00 %
25.10.2019 06:56 12,8 C 11,7 C 11,7 C 90 % 1017,3 hPa 0,0 l/m 0 min 0 min 0 W/m 12,9 km/h (3 Bft) 100,00 %
25.10.2019 06:58 12,8 C 11,7 C 11,1 C 90 % 1017,2 hPa 0,0 l/m 0 min 0 min 0 W/m 6,4 km/h (2 Bft) 97,87 %
25.10.2019 07:00 12,7 C 11,7 C 11,1 C 90 % 1017,2 hPa 0,0 l/m 0 min 0 min 0 W/m 12,9 km/h (3 Bft) 100,00 %
25.10.2019 07:02 12,7 C 11,7 C 11,1 C 90 % 1017,2 hPa 0,0 l/m 0 min 0 min 0 W/m 6,4 km/h (2 Bft) 97,83 %
25.10.2019 07:04 12,7 C 11,7 C 11,1 C 90 % 1017,3 hPa 0,0 l/m 0 min 0 min 0 W/m 6,4 km/h (2 Bft) 100,00 %
25.10.2019 07:06 12,7 C 11,7 C 11,1 C 90 % 1017,3 hPa 0,0 l/m 0 min 0 min 0 W/m 6,4 km/h (2 Bft) 100,00 %
25.10.2019 07:08 12,7 C 11,7 C 11,1 C 90 % 1017,4 hPa 0,0 l/m 0 min 0 min 0 W/m 6,4 km/h (2 Bft) 100,00 %
25.10.2019 07:10 12,6 C 11,7 C 11,1 C 90 % 1017,4 hPa 0,0 l/m 0 min 0 min 0 W/m 6,4 km/h (2 Bft) 100,00 %
25.10.2019 07:12 12,6 C 11,1 C 11,1 C 90 % 1017,4 hPa 0,0 l/m 0 min 0 min 0 W/m 3,2 km/h (1 Bft) 95,74 %
25.10.2019 07:14 12,6 C 11,7 C 11,1 C 90 % 1017,4 hPa 0,0 l/m 0 min 0 min 0 W/m 9,7 km/h (2 Bft) 100,00 %
25.10.2019 07:16 12,6 C 11,7 C 11,1 C 90 % 1017,4 hPa 0,0 l/m 0 min 0 min 0 W/m 6,4 km/h (2 Bft) 100,00 %
25.10.2019 07:18 12,6 C 11,7 C 11,1 C 90 % 1017,5 hPa 0,0 l/m 0 min 0 min 0 W/m 12,9 km/h (3 Bft) 100,00 %
25.10.2019 07:20 12,6 C 11,7 C 11,1 C 90 % 1017,4 hPa 0,0 l/m 0 min 0 min 0 W/m 6,4 km/h (2 Bft) 100,00 %
25.10.2019 07:22 12,6 C 11,7 C 11,1 C 90 % 1017,4 hPa 0,0 l/m 0 min 0 min 0 W/m 12,9 km/h (3 Bft) 100,00 %
25.10.2019 07:24 12,5 C 11,7 C 11,1 C 90 % 1017,4 hPa 0,0 l/m 0 min 0 min 0 W/m 16,1 km/h (3 Bft) 100,00 %
25.10.2019 07:26 12,5 C 11,7 C 11,1 C 90 % 1017,4 hPa 0,0 l/m 0 min 0 min 0 W/m 12,9 km/h (3 Bft) 100,00 %
25.10.2019 07:28 12,5 C 11,7 C 11,1 C 90 % 1017,5 hPa 0,0 l/m 0 min 0 min 0 W/m 12,9 km/h (3 Bft) 100,00 %
25.10.2019 07:30 12,5 C 11,7 C 11,1 C 90 % 1017,6 hPa 0,0 l/m 0 min 0 min 0 W/m 6,4 km/h (2 Bft) 95,74 %
25.10.2019 07:32 12,4 C 11,7 C 11,1 C 91 % 1017,6 hPa 0,0 l/m 0 min 0 min 0 W/m 12,9 km/h (3 Bft) 95,65 %
25.10.2019 07:34 12,4 C 11,7 C 11,1 C 91 % 1017,6 hPa 0,0 l/m 0 min 0 min 0 W/m 16,1 km/h (3 Bft) 97,87 %
25.10.2019 07:36 12,4 C 11,7 C 11,1 C 91 % 1017,6 hPa 0,0 l/m 0 min 0 min 0 W/m 16,1 km/h (3 Bft) 95,74 %
25.10.2019 07:38 12,4 C 11,7 C 11,1 C 91 % 1017,7 hPa 0,0 l/m 0 min 0 min 0 W/m 12,9 km/h (3 Bft) 97,87 %
25.10.2019 07:40 12,4 C 11,7 C 11,1 C 91 % 1017,7 hPa 0,0 l/m 0 min 0 min 0 W/m 6,4 km/h (2 Bft) 97,87 %
25.10.2019 07:42 12,4 C 11,7 C 11,1 C 91 % 1017,8 hPa 0,0 l/m 0 min 0 min 0 W/m 3,2 km/h (1 Bft) 95,74 %
25.10.2019 07:44 12,4 C 11,7 C 11,1 C 91 % 1017,8 hPa 0,0 l/m 0 min 0 min 0 W/m 6,4 km/h (2 Bft) 97,83 %
25.10.2019 07:46 12,4 C 11,7 C 11,1 C 91 % 1017,9 hPa 0,0 l/m 0 min 0 min 0 W/m 6,4 km/h (2 Bft) 93,62 %
25.10.2019 07:48 12,4 C 11,7 C 11,1 C 91 % 1017,9 hPa 0,0 l/m 0 min 0 min 0 W/m 6,4 km/h (2 Bft) 95,65 %
25.10.2019 07:50 12,4 C 11,1 C 11,1 C 91 % 1017,9 hPa 0,0 l/m 0 min 0 min 0 W/m 3,2 km/h (1 Bft) 95,74 %
25.10.2019 07:52 12,3 C 11,1 C 11,1 C 91 % 1017,9 hPa 0,0 l/m 0 min 0 min 0 W/m 6,4 km/h (2 Bft) 93,62 %
25.10.2019 07:54 12,3 C 11,1 C 11,1 C 91 % 1018,0 hPa 0,0 l/m 0 min 0 min 0 W/m 12,9 km/h (3 Bft) 95,74 %
25.10.2019 07:56 12,3 C 11,1 C 11,1 C 91 % 1018,2 hPa 0,0 l/m 0 min 0 min 0 W/m 3,2 km/h (1 Bft) 93,48 %
25.10.2019 07:58 12,3 C 11,1 C 11,1 C 91 % 1018,2 hPa 0,0 l/m 0 min 0 min 0 W/m 6,4 km/h (2 Bft) 95,74 %
25.10.2019 08:00 12,3 C 11,1 C 11,1 C 91 % 1018,2 hPa 0,0 l/m 0 min 0 min 0 W/m 12,9 km/h (3 Bft) 93,62 %
25.10.2019 08:02 12,3 C 11,1 C 11,1 C 91 % 1018,2 hPa 0,0 l/m 0 min 0 min 0 W/m 6,4 km/h (2 Bft) 93,62 %
25.10.2019 08:04 12,3 C 11,1 C 11,1 C 91 % 1018,2 hPa 0,0 l/m 0 min 0 min 0 W/m 3,2 km/h (1 Bft) 95,74 %
25.10.2019 08:06 12,3 C 11,1 C 11,1 C 91 % 1018,3 hPa 0,0 l/m 0 min 0 min 0 W/m 12,9 km/h (3 Bft) 95,65 %
25.10.2019 08:08 12,3 C 11,1 C 11,1 C 91 % 1018,4 hPa 0,0 l/m 0 min 0 min 0 W/m 9,7 km/h (2 Bft) 95,74 %
25.10.2019 08:10 12,3 C 11,1 C 11,1 C 91 % 1018,3 hPa 0,0 l/m 0 min 0 min 0 W/m 6,4 km/h (2 Bft) 93,62 %
25.10.2019 08:12 12,3 C 11,1 C 11,1 C 91 % 1018,4 hPa 0,0 l/m 0 min 0 min 0 W/m 3,2 km/h (1 Bft) 95,74 %
25.10.2019 08:14 12,2 C 11,1 C 11,1 C 91 % 1018,3 hPa 0,0 l/m 0 min 0 min 0 W/m 3,2 km/h (1 Bft) 95,74 %
25.10.2019 08:16 12,2 C 11,1 C 11,1 C 91 % 1018,4 hPa 0,0 l/m 0 min 0 min 0 W/m 3,2 km/h (1 Bft) 97,87 %
25.10.2019 08:18 12,2 C 11,1 C 11,1 C 91 % 1018,4 hPa 0,0 l/m 0 min 0 min 0 W/m 6,4 km/h (2 Bft) 97,83 %
25.10.2019 08:20 12,2 C 11,1 C 11,1 C 91 % 1018,4 hPa 0,0 l/m 0 min 0 min 2 W/m 3,2 km/h (1 Bft) 97,87 %
25.10.2019 08:22 12,2 C 11,1 C 10,6 C 91 % 1018,4 hPa 0,0 l/m 0 min 0 min 5 W/m 9,7 km/h (2 Bft) 97,62 %
25.10.2019 08:24 12,2 C 11,1 C 11,1 C 91 % 1018,5 hPa 0,0 l/m 0 min 0 min 6 W/m 6,4 km/h (2 Bft) 97,87 %
25.10.2019 08:26 12,2 C 11,1 C 11,1 C 92 % 1018,5 hPa 0,0 l/m 0 min 0 min 7 W/m 12,9 km/h (3 Bft) 97,92 %
25.10.2019 08:28 12,2 C 11,1 C 11,1 C 92 % 1018,6 hPa 0,0 l/m 0 min 0 min 7 W/m 9,7 km/h (2 Bft) 97,92 %
25.10.2019 08:30 12,1 C 11,1 C 11,1 C 92 % 1018,7 hPa 0,0 l/m 0 min 0 min 9 W/m 12,9 km/h (3 Bft) 97,92 %
25.10.2019 08:32 12,1 C 11,1 C 11,1 C 92 % 1018,7 hPa 0,0 l/m 0 min 0 min 11 W/m 6,4 km/h (2 Bft) 95,83 %
25.10.2019 08:34 12,1 C 11,1 C 10,6 C 92 % 1018,6 hPa 0,0 l/m 0 min 0 min 12 W/m 6,4 km/h (2 Bft) 100,00 %
25.10.2019 08:36 12,1 C 11,1 C 11,1 C 92 % 1018,6 hPa 0,0 l/m 0 min 0 min 12 W/m 12,9 km/h (3 Bft) 100,00 %
25.10.2019 08:38 12,1 C 11,7 C 11,1 C 92 % 1018,6 hPa 0,0 l/m 0 min 0 min 14 W/m 19,3 km/h (3 Bft) 100,00 %
25.10.2019 08:40 12,1 C 11,7 C 11,1 C 92 % 1018,6 hPa 0,0 l/m 0 min 0 min 16 W/m 9,7 km/h (2 Bft) 100,00 %
25.10.2019 08:42 12,1 C 11,7 C 11,1 C 92 % 1018,6 hPa 0,0 l/m 0 min 0 min 18 W/m 19,3 km/h (3 Bft) 100,00 %
25.10.2019 08:44 12,1 C 11,7 C 11,1 C 92 % 1018,6 hPa 0,0 l/m 0 min 0 min 19 W/m 6,4 km/h (2 Bft) 100,00 %
25.10.2019 08:46 12,1 C 11,7 C 11,1 C 92 % 1018,6 hPa 0,0 l/m 0 min 0 min 20 W/m 6,4 km/h (2 Bft) 100,00 %
25.10.2019 08:48 12,1 C 11,7 C 11,1 C 92 % 1018,7 hPa 0,0 l/m 0 min 0 min 22 W/m 6,4 km/h (2 Bft) 100,00 %
25.10.2019 08:50 12,1 C 11,7 C 11,1 C 92 % 1018,6 hPa 0,0 l/m 0 min 0 min 23 W/m 12,9 km/h (3 Bft) 97,92 %
25.10.2019 08:52 12,1 C 11,7 C 11,1 C 92 % 1018,7 hPa 0,0 l/m 0 min 0 min 25 W/m 12,9 km/h (3 Bft) 97,92 %
25.10.2019 08:54 12,1 C 11,7 C 11,1 C 92 % 1018,8 hPa 0,0 l/m 0 min 0 min 26 W/m 12,9 km/h (3 Bft) 97,92 %
25.10.2019 08:56 12,1 C 11,7 C 11,1 C 92 % 1018,8 hPa 0,0 l/m 0 min 0 min 27 W/m 6,4 km/h (2 Bft) 95,83 %
25.10.2019 08:58 12,1 C 11,7 C 11,1 C 92 % 1018,8 hPa 0,0 l/m 0 min 0 min 29 W/m 6,4 km/h (2 Bft) 97,87 %
25.10.2019 09:00 12,1 C 11,7 C 11,1 C 92 % 1018,9 hPa 0,0 l/m 0 min 0 min 32 W/m 16,1 km/h (3 Bft) 93,62 %
25.10.2019 09:02 12,2 C 11,7 C 11,1 C 92 % 1018,9 hPa 0,0 l/m 0 min 0 min 33 W/m 12,9 km/h (3 Bft) 97,87 %
25.10.2019 09:04 12,2 C 11,7 C 11,1 C 92 % 1018,9 hPa 0,0 l/m 0 min 0 min 36 W/m 6,4 km/h (2 Bft) 100,00 %
25.10.2019 09:06 12,2 C 11,7 C 11,1 C 93 % 1018,9 hPa 0,0 l/m 0 min 0 min 38 W/m 12,9 km/h (3 Bft) 95,65 %
25.10.2019 09:08 12,2 C 11,7 C 11,1 C 93 % 1018,8 hPa 0,0 l/m 0 min 0 min 40 W/m 12,9 km/h (3 Bft) 97,87 %
25.10.2019 09:10 12,2 C 11,7 C 11,1 C 93 % 1018,9 hPa 0,0 l/m 0 min 0 min 41 W/m 12,9 km/h (3 Bft) 97,87 %
25.10.2019 09:12 12,2 C 11,7 C 11,7 C 93 % 1019,1 hPa 0,0 l/m 0 min 0 min 43 W/m 19,3 km/h (3 Bft) 97,87 %
25.10.2019 09:14 12,2 C 11,7 C 11,7 C 93 % 1019,1 hPa 0,0 l/m 0 min 0 min 45 W/m 16,1 km/h (3 Bft) 97,87 %
25.10.2019 09:16 12,2 C 11,7 C 11,7 C 93 % 1019,2 hPa 0,0 l/m 0 min 0 min 47 W/m 19,3 km/h (3 Bft) 97,83 %
25.10.2019 09:18 12,2 C 12,2 C 11,7 C 93 % 1019,3 hPa 0,0 l/m 0 min 0 min 50 W/m 22,5 km/h (4 Bft) 97,87 %
25.10.2019 09:20 12,3 C 12,2 C 11,7 C 93 % 1019,4 hPa 0,0 l/m 0 min 0 min 54 W/m 12,9 km/h (3 Bft) 97,87 %
25.10.2019 09:22 12,3 C 12,2 C 11,7 C 93 % 1019,4 hPa 0,0 l/m 0 min 0 min 58 W/m 12,9 km/h (3 Bft) 97,87 %
25.10.2019 09:24 12,3 C 12,2 C 11,7 C 93 % 1019,4 hPa 0,0 l/m 0 min 0 min 62 W/m 19,3 km/h (3 Bft) 97,87 %
25.10.2019 09:26 12,3 C 12,2 C 11,7 C 92 % 1019,3 hPa 0,0 l/m 0 min 0 min 64 W/m 12,9 km/h (3 Bft) 95,74 %
25.10.2019 09:28 12,3 C 12,2 C 11,7 C 92 % 1019,3 hPa 0,0 l/m 0 min 0 min 68 W/m 12,9 km/h (3 Bft) 97,83 %
25.10.2019 09:30 12,4 C 12,2 C 11,7 C 92 % 1019,3 hPa 0,0 l/m 0 min 0 min 70 W/m 12,9 km/h (3 Bft) 97,87 %
25.10.2019 09:32 12,4 C 12,2 C 11,7 C 92 % 1019,2 hPa 0,0 l/m 0 min 0 min 72 W/m 12,9 km/h (3 Bft) 97,67 %
25.10.2019 09:34 12,4 C 12,2 C 11,7 C 92 % 1019,2 hPa 0,0 l/m 0 min 0 min 76 W/m 19,3 km/h (3 Bft) 97,87 %
25.10.2019 09:36 12,4 C 12,2 C 11,7 C 92 % 1019,2 hPa 0,0 l/m 0 min 0 min 77 W/m 12,9 km/h (3 Bft) 97,92 %
25.10.2019 09:38 12,4 C 12,2 C 11,7 C 92 % 1019,2 hPa 0,0 l/m 0 min 0 min 79 W/m 16,1 km/h (3 Bft) 97,92 %
25.10.2019 09:40 12,5 C 12,2 C 11,7 C 92 % 1019,4 hPa 0,0 l/m 0 min 0 min 83 W/m 29,0 km/h (5 Bft) 97,87 %
25.10.2019 09:42 12,6 C 12,8 C 11,7 C 92 % 1019,5 hPa 0,0 l/m 0 min 0 min 85 W/m 19,3 km/h (3 Bft) 97,87 %
25.10.2019 09:44 12,6 C 12,8 C 11,7 C 92 % 1019,5 hPa 0,0 l/m 0 min 0 min 89 W/m 6,4 km/h (2 Bft) 97,87 %
25.10.2019 09:46 12,6 C 12,8 C 11,7 C 92 % 1019,5 hPa 0,0 l/m 0 min 0 min 92 W/m 12,9 km/h (3 Bft) 95,83 %
25.10.2019 09:48 12,6 C 12,8 C 11,7 C 92 % 1019,5 hPa 0,0 l/m 0 min 0 min 96 W/m 6,4 km/h (2 Bft) 100,00 %
25.10.2019 09:50 12,6 C 12,8 C 12,2 C 92 % 1019,6 hPa 0,0 l/m 0 min 0 min 98 W/m 16,1 km/h (3 Bft) 100,00 %
25.10.2019 09:52 12,7 C 12,8 C 12,2 C 92 % 1019,5 hPa 0,0 l/m 0 min 0 min 99 W/m 32,2 km/h (5 Bft) 100,00 %
25.10.2019 09:54 12,7 C 12,8 C 12,2 C 91 % 1019,6 hPa 0,0 l/m 0 min 0 min 101 W/m 12,9 km/h (3 Bft) 97,87 %
25.10.2019 09:56 12,7 C 12,8 C 12,2 C 91 % 1019,5 hPa 0,0 l/m 0 min 0 min 107 W/m 16,1 km/h (3 Bft) 100,00 %
25.10.2019 09:58 12,7 C 12,8 C 12,2 C 91 % 1019,6 hPa 0,0 l/m 0 min 0 min 111 W/m 16,1 km/h (3 Bft) 100,00 %
25.10.2019 10:00 12,7 C 12,8 C 12,2 C 91 % 1019,6 hPa 0,0 l/m 0 min 0 min 108 W/m 12,9 km/h (3 Bft) 100,00 %
25.10.2019 10:02 12,8 C 12,8 C 12,2 C 91 % 1019,6 hPa 0,0 l/m 0 min 0 min 104 W/m 19,3 km/h (3 Bft) 100,00 %
25.10.2019 10:04 12,8 C 12,8 C 12,2 C 91 % 1019,5 hPa 0,0 l/m 0 min 0 min 100 W/m 22,5 km/h (4 Bft) 100,00 %
25.10.2019 10:06 12,8 C 12,8 C 12,2 C 91 % 1019,5 hPa 0,0 l/m 0 min 0 min 101 W/m 22,5 km/h (4 Bft) 100,00 %
25.10.2019 10:08 12,8 C 12,8 C 12,2 C 91 % 1019,5 hPa 0,0 l/m 0 min 0 min 105 W/m 19,3 km/h (3 Bft) 100,00 %
25.10.2019 10:10 12,9 C 13,3 C 12,2 C 91 % 1019,5 hPa 0,0 l/m 0 min 0 min 107 W/m 12,9 km/h (3 Bft) 100,00 %
25.10.2019 10:12 12,9 C 13,3 C 12,2 C 91 % 1019,5 hPa 0,0 l/m 0 min 0 min 109 W/m 25,7 km/h (4 Bft) 93,62 %
25.10.2019 10:14 12,9 C 13,3 C 12,2 C 90 % 1019,6 hPa 0,0 l/m 0 min 0 min 120 W/m 22,5 km/h (4 Bft) 97,83 %
25.10.2019 10:16 12,9 C 13,3 C 12,2 C 90 % 1019,7 hPa 0,0 l/m 0 min 0 min 129 W/m 19,3 km/h (3 Bft) 97,87 %
25.10.2019 10:18 12,9 C 13,3 C 12,2 C 90 % 1019,5 hPa 0,0 l/m 2 min 0 min 139 W/m 16,1 km/h (3 Bft) 97,62 %
25.10.2019 10:20 13,0 C 13,3 C 12,2 C 90 % 1019,5 hPa 0,0 l/m 2 min 0 min 152 W/m 19,3 km/h (3 Bft) 97,87 %
25.10.2019 10:22 13,0 C 13,9 C 12,2 C 90 % 1019,5 hPa 0,0 l/m 2 min 0 min 163 W/m 22,5 km/h (4 Bft) 97,92 %
25.10.2019 10:24 13,1 C 13,9 C 12,8 C 90 % 1019,5 hPa 0,0 l/m 2 min 0 min 189 W/m 25,7 km/h (4 Bft) 97,92 %
25.10.2019 10:26 13,1 C 13,9 C 12,8 C 90 % 1019,4 hPa 0,0 l/m 2 min 0 min 210 W/m 19,3 km/h (3 Bft) 95,83 %
25.10.2019 10:28 13,2 C 13,9 C 12,8 C 90 % 1019,5 hPa 0,0 l/m 2 min 0 min 233 W/m 22,5 km/h (4 Bft) 95,83 %
25.10.2019 10:30 13,2 C 13,9 C 12,8 C 90 % 1019,4 hPa 0,0 l/m 2 min 0 min 210 W/m 25,7 km/h (4 Bft) 93,62 %
25.10.2019 10:32 13,2 C 14,4 C 12,8 C 89 % 1019,5 hPa 0,0 l/m 2 min 0 min 212 W/m 12,9 km/h (3 Bft) 97,87 %
25.10.2019 10:34 13,3 C 14,4 C 12,8 C 89 % 1019,5 hPa 0,0 l/m 2 min 0 min 205 W/m 22,5 km/h (4 Bft) 97,87 %
25.10.2019 10:36 13,3 C 14,4 C 12,8 C 89 % 1019,7 hPa 0,0 l/m 2 min 0 min 199 W/m 25,7 km/h (4 Bft) 95,74 %
25.10.2019 10:38 13,4 C 14,4 C 12,8 C 89 % 1019,7 hPa 0,0 l/m 2 min 0 min 187 W/m 19,3 km/h (3 Bft) 95,65 %
25.10.2019 10:40 13,4 C 14,4 C 12,8 C 89 % 1019,7 hPa 0,0 l/m 2 min 0 min 178 W/m 22,5 km/h (4 Bft) 95,74 %
25.10.2019 10:42 13,4 C 13,9 C 12,8 C 88 % 1019,9 hPa 0,0 l/m 2 min 0 min 176 W/m 29,0 km/h (5 Bft) 97,87 %
25.10.2019 10:44 13,5 C 13,9 C 12,8 C 88 % 1019,8 hPa 0,0 l/m 2 min 0 min 170 W/m 16,1 km/h (3 Bft) 97,87 %
25.10.2019 10:46 13,5 C 13,9 C 12,8 C 88 % 1019,8 hPa 0,0 l/m 2 min 0 min 184 W/m 19,3 km/h (3 Bft) 95,74 %
25.10.2019 10:48 13,6 C 13,9 C 12,8 C 88 % 1019,9 hPa 0,0 l/m 2 min 0 min 193 W/m 12,9 km/h (3 Bft) 95,74 %
25.10.2019 10:50 13,6 C 13,9 C 12,8 C 88 % 1019,9 hPa 0,0 l/m 2 min 0 min 191 W/m 12,9 km/h (3 Bft) 95,65 %
25.10.2019 10:52 13,6 C 14,4 C 12,8 C 87 % 1019,9 hPa 0,0 l/m 2 min 0 min 196 W/m 32,2 km/h (5 Bft) 97,87 %
25.10.2019 10:54 13,6 C 14,4 C 12,8 C 87 % 1019,9 hPa 0,0 l/m 2 min 0 min 212 W/m 16,1 km/h (3 Bft) 97,62 %
25.10.2019 10:56 13,7 C 13,9 C 12,8 C 87 % 1020,0 hPa 0,0 l/m 2 min 0 min 197 W/m 19,3 km/h (3 Bft) 97,87 %
25.10.2019 10:58 13,7 C 14,4 C 12,8 C 87 % 1020,0 hPa 0,0 l/m 2 min 0 min 195 W/m 22,5 km/h (4 Bft) 96,00 %
25.10.2019 11:00 13,7 C 14,4 C 12,8 C 87 % 1020,1 hPa 0,0 l/m 2 min 0 min 206 W/m 22,5 km/h (4 Bft) 95,83 %
25.10.2019 11:02 13,7 C 14,4 C 12,8 C 86 % 1020,2 hPa 0,0 l/m 2 min 0 min 234 W/m 25,7 km/h (4 Bft) 93,62 %
25.10.2019 11:04 13,8 C 14,4 C 13,3 C 86 % 1020,1 hPa 0,0 l/m 2 min 0 min 206 W/m 22,5 km/h (4 Bft) 97,87 %
25.10.2019 11:06 13,8 C 15,0 C 13,3 C 86 % 1020,3 hPa 0,0 l/m 2 min 0 min 212 W/m 29,0 km/h (5 Bft) 97,62 %
25.10.2019 11:08 13,8 C 15,0 C 13,3 C 86 % 1020,1 hPa 0,0 l/m 2 min 0 min 236 W/m 22,5 km/h (4 Bft) 95,74 %
25.10.2019 11:10 13,8 C 15,6 C 13,3 C 86 % 1020,3 hPa 0,0 l/m 2 min 0 min 258 W/m 22,5 km/h (4 Bft) 97,92 %
25.10.2019 11:12 13,9 C 15,6 C 13,3 C 86 % 1020,2 hPa 0,0 l/m 2 min 0 min 247 W/m 12,9 km/h (3 Bft) 95,83 %
25.10.2019 11:14 13,9 C 15,6 C 13,3 C 86 % 1020,2 hPa 0,0 l/m 2 min 0 min 250 W/m 16,1 km/h (3 Bft) 97,92 %
25.10.2019 11:16 13,9 C 15,6 C 13,3 C 86 % 1020,1 hPa 0,0 l/m 2 min 0 min 261 W/m 19,3 km/h (3 Bft) 97,92 %
25.10.2019 11:18 14,0 C 15,6 C 13,3 C 85 % 1020,1 hPa 0,0 l/m 2 min 0 min 244 W/m 22,5 km/h (4 Bft) 93,62 %
25.10.2019 11:20 14,1 C 15,6 C 13,3 C 85 % 1020,1 hPa 0,0 l/m 2 min 0 min 269 W/m 25,7 km/h (4 Bft) 97,87 %
25.10.2019 11:22 14,1 C 15,6 C 13,3 C 85 % 1020,1 hPa 0,0 l/m 2 min 0 min 275 W/m 32,2 km/h (5 Bft) 97,87 %
25.10.2019 11:24 14,1 C 15,6 C 13,3 C 85 % 1020,1 hPa 0,0 l/m 2 min 0 min 271 W/m 29,0 km/h (5 Bft) 97,83 %
25.10.2019 11:26 14,2 C 16,1 C 13,3 C 84 % 1020,2 hPa 0,0 l/m 2 min 0 min 277 W/m 29,0 km/h (5 Bft) 97,87 %
25.10.2019 11:28 14,3 C 16,7 C 13,3 C 85 % 1020,2 hPa 0,0 l/m 2 min 0 min 319 W/m 22,5 km/h (4 Bft) 97,87 %
25.10.2019 11:30 14,3 C 16,1 C 13,3 C 84 % 1020,3 hPa 0,0 l/m 2 min 0 min 342 W/m 19,3 km/h (3 Bft) 95,12 %
25.10.2019 11:32 14,3 C 15,6 C 13,3 C 84 % 1020,3 hPa 0,0 l/m 2 min 0 min 375 W/m 19,3 km/h (3 Bft) 97,92 %
25.10.2019 11:34 14,3 C 15,6 C 13,3 C 84 % 1020,3 hPa 0,0 l/m 2 min 0 min 376 W/m 16,1 km/h (3 Bft) 97,92 %
25.10.2019 11:36 14,3 C 15,6 C 13,9 C 84 % 1020,4 hPa 0,0 l/m 2 min 0 min 337 W/m 19,3 km/h (3 Bft) 97,92 %
25.10.2019 11:38 14,3 C 15,0 C 13,9 C 84 % 1020,4 hPa 0,0 l/m 2 min 0 min 354 W/m 22,5 km/h (4 Bft) 97,92 %
25.10.2019 11:40 14,3 C 15,0 C 13,9 C 84 % 1020,2 hPa 0,0 l/m 2 min 0 min 344 W/m 25,7 km/h (4 Bft) 97,83 %
25.10.2019 11:42 14,4 C 15,6 C 13,9 C 84 % 1020,3 hPa 0,0 l/m 2 min 0 min 263 W/m 29,0 km/h (5 Bft) 95,83 %
25.10.2019 11:44 14,5 C 15,6 C 13,9 C 83 % 1020,3 hPa 0,0 l/m 2 min 0 min 230 W/m 32,2 km/h (5 Bft) 97,92 %
25.10.2019 11:46 14,5 C 15,6 C 13,9 C 83 % 1020,5 hPa 0,0 l/m 2 min 0 min 403 W/m 29,0 km/h (5 Bft) 95,74 %
25.10.2019 11:48 14,6 C 16,7 C 13,9 C 83 % 1020,3 hPa 0,0 l/m 2 min 0 min 425 W/m 19,3 km/h (3 Bft) 93,48 %
25.10.2019 11:50 14,6 C 16,7 C 13,9 C 82 % 1020,4 hPa 0,0 l/m 2 min 0 min 382 W/m 25,7 km/h (4 Bft) 95,74 %
25.10.2019 11:52 14,6 C 16,7 C 13,9 C 82 % 1020,3 hPa 0,0 l/m 2 min 0 min 328 W/m 25,7 km/h (4 Bft) 95,74 %
25.10.2019 11:54 14,7 C 16,7 C 13,9 C 82 % 1020,4 hPa 0,0 l/m 2 min 0 min 357 W/m 19,3 km/h (3 Bft) 93,62 %
25.10.2019 11:56 14,7 C 17,2 C 13,9 C 82 % 1020,5 hPa 0,0 l/m 2 min 0 min 403 W/m 32,2 km/h (5 Bft) 95,74 %
25.10.2019 11:58 14,7 C 16,7 C 13,9 C 82 % 1020,5 hPa 0,0 l/m 2 min 0 min 402 W/m 32,2 km/h (5 Bft) 95,24 %
25.10.2019 12:00 14,8 C 16,7 C 13,9 C 81 % 1020,6 hPa 0,0 l/m 2 min 0 min 388 W/m 29,0 km/h (5 Bft) 95,74 %
25.10.2019 12:02 14,8 C 16,7 C 13,9 C 81 % 1020,6 hPa 0,0 l/m 2 min 0 min 410 W/m 19,3 km/h (3 Bft) 98,00 %
25.10.2019 12:04 14,9 C 16,7 C 13,9 C 81 % 1020,6 hPa 0,0 l/m 2 min 0 min 407 W/m 32,2 km/h (5 Bft) 100,00 %
25.10.2019 12:08 15,0 C 17,8 C 13,9 C 80 % 1020,5 hPa 0,0 l/m 4 min 0 min 386 W/m 35,4 km/h (5 Bft) 96,67 %
25.10.2019 12:11 15,1 C 18,3 C 14,4 C 80 % 1020,4 hPa 0,0 l/m 3 min 0 min 426 W/m 25,7 km/h (4 Bft) 97,26 %
25.10.2019 12:12 15,1 C 17,8 C 14,4 C 80 % 1020,4 hPa 0,0 l/m 1 min 0 min 446 W/m 32,2 km/h (5 Bft) 97,26 %
25.10.2019 12:16 15,3 C 18,3 C 14,4 C 79 % 1020,5 hPa 0,0 l/m 4 min 0 min 441 W/m 35,4 km/h (5 Bft) 98,23 %
25.10.2019 12:18 15,3 C 18,9 C 14,4 C 78 % 1020,6 hPa 0,0 l/m 2 min 0 min 469 W/m 22,5 km/h (4 Bft) 98,23 %
25.10.2019 12:20 15,4 C 18,3 C 14,4 C 78 % 1020,5 hPa 0,0 l/m 2 min 0 min 461 W/m 25,7 km/h (4 Bft) 97,73 %
25.10.2019 12:24 15,5 C 19,4 C 14,4 C 78 % 1020,6 hPa 0,0 l/m 4 min 0 min 471 W/m 22,5 km/h (4 Bft) 97,12 %
25.10.2019 12:26 15,6 C 20,0 C 14,4 C 78 % 1020,6 hPa 0,0 l/m 2 min 0 min 466 W/m 19,3 km/h (3 Bft) 93,62 %
25.10.2019 12:30 15,7 C 18,9 C 14,4 C 77 % 1020,6 hPa 0,0 l/m 4 min 0 min 441 W/m 25,7 km/h (4 Bft) 96,63 %
25.10.2019 12:34 15,9 C 19,4 C 14,4 C 76 % 1020,6 hPa 0,0 l/m 4 min 0 min 453 W/m 25,7 km/h (4 Bft) 97,00 %
25.10.2019 12:36 15,9 C 18,9 C 14,4 C 76 % 1020,6 hPa 0,0 l/m 2 min 0 min 424 W/m 29,0 km/h (5 Bft) 97,00 %
25.10.2019 12:38 16,0 C 18,9 C 14,4 C 76 % 1020,8 hPa 0,0 l/m 2 min 0 min 437 W/m 29,0 km/h (5 Bft) 97,78 %
25.10.2019 12:40 16,0 C 18,9 C 14,4 C 76 % 1020,6 hPa 0,0 l/m 2 min 0 min 471 W/m 19,3 km/h (3 Bft) 95,65 %
25.10.2019 12:44 16,1 C 18,9 C 15,0 C 76 % 1020,4 hPa 0,0 l/m 4 min 0 min 480 W/m 29,0 km/h (5 Bft) 97,89 %
25.10.2019 12:46 16,1 C 18,9 C 15,0 C 75 % 1020,4 hPa 0,0 l/m 2 min 0 min 489 W/m 38,6 km/h (5 Bft) 97,83 %
25.10.2019 12:50 16,2 C 19,4 C 15,0 C 74 % 1020,5 hPa 0,0 l/m 4 min 0 min 461 W/m 25,7 km/h (4 Bft) 95,74 %
25.10.2019 12:54 16,3 C 18,9 C 15,0 C 74 % 1020,7 hPa 0,0 l/m 4 min 0 min 448 W/m 29,0 km/h (5 Bft) 97,89 %
25.10.2019 12:56 16,3 C 18,9 C 15,0 C 74 % 1020,6 hPa 0,0 l/m 2 min 0 min 501 W/m 29,0 km/h (5 Bft) 97,89 %
25.10.2019 12:58 16,3 C 18,9 C 15,0 C 74 % 1020,6 hPa 0,0 l/m 2 min 0 min 497 W/m 35,4 km/h (5 Bft) 97,67 %
25.10.2019 13:00 16,3 C 18,9 C 15,0 C 74 % 1020,6 hPa 0,0 l/m 2 min 0 min 513 W/m 25,7 km/h (4 Bft) 100,00 %
25.10.2019 13:04 16,3 C 19,4 C 15,0 C 74 % 1020,8 hPa 0,0 l/m 4 min 0 min 495 W/m 29,0 km/h (5 Bft) 100,00 %
25.10.2019 13:08 16,4 C 19,4 C 15,6 C 74 % 1020,8 hPa 0,0 l/m 4 min 0 min 509 W/m 25,7 km/h (4 Bft) 97,87 %
25.10.2019 13:10 16,4 C 20,0 C 15,6 C 75 % 1020,8 hPa 0,0 l/m 2 min 0 min 492 W/m 12,9 km/h (3 Bft) 97,87 %
25.10.2019 13:12 16,5 C 20,6 C 15,6 C 75 % 1020,8 hPa 0,0 l/m 2 min 0 min 484 W/m 12,9 km/h (3 Bft) 98,91 %
25.10.2019 13:16 16,6 C 18,9 C 16,1 C 74 % 1020,7 hPa 0,0 l/m 4 min 0 min 475 W/m 32,2 km/h (5 Bft) 99,01 %
25.10.2019 13:20 16,6 C 17,2 C 15,6 C 73 % 1020,7 hPa 0,0 l/m 4 min 0 min 336 W/m 29,0 km/h (5 Bft) 100,00 %
25.10.2019 13:24 16,4 C 16,7 C 15,6 C 73 % 1020,7 hPa 0,0 l/m 0 min 0 min 192 W/m 32,2 km/h (5 Bft) 100,00 %
25.10.2019 13:28 16,4 C 18,3 C 16,7 C 74 % 1020,6 hPa 0,0 l/m 4 min 0 min 322 W/m 32,2 km/h (5 Bft) 97,85 %
25.10.2019 13:30 16,4 C 18,9 C 16,7 C 74 % 1020,6 hPa 0,0 l/m 2 min 0 min 411 W/m 29,0 km/h (5 Bft) 97,85 %
25.10.2019 13:32 16,4 C 20,0 C 16,7 C 75 % 1020,6 hPa 0,0 l/m 2 min 0 min 443 W/m 29,0 km/h (5 Bft) 100,00 %
25.10.2019 13:34 16,5 C 18,3 C 16,1 C 75 % 1020,5 hPa 0,0 l/m 2 min 0 min 383 W/m 22,5 km/h (4 Bft) 100,00 %
25.10.2019 13:38 16,6 C 19,4 C 16,1 C 75 % 1020,5 hPa 0,0 l/m 4 min 0 min 415 W/m 19,3 km/h (3 Bft) 100,00 %
25.10.2019 13:42 16,6 C 19,4 C 15,6 C 74 % 1020,4 hPa 0,0 l/m 4 min 0 min 450 W/m 22,5 km/h (4 Bft) 100,00 %
25.10.2019 13:44 16,6 C 20,0 C 15,6 C 74 % 1020,3 hPa 0,0 l/m 2 min 0 min 473 W/m 22,5 km/h (4 Bft) 100,00 %
25.10.2019 13:46 16,7 C 20,6 C 16,1 C 74 % 1020,3 hPa 0,0 l/m 2 min 0 min 470 W/m 22,5 km/h (4 Bft) 100,00 %
25.10.2019 13:48 16,8 C 21,1 C 16,7 C 74 % 1020,4 hPa 0,0 l/m 2 min 0 min 507 W/m 16,1 km/h (3 Bft) 97,87 %
25.10.2019 13:52 16,9 C 20,0 C 16,1 C 73 % 1020,4 hPa 0,0 l/m 4 min 0 min 522 W/m 48,3 km/h (6 Bft) 100,00 %
25.10.2019 13:56 17,0 C 20,0 C 16,1 C 72 % 1020,4 hPa 0,0 l/m 4 min 0 min 450 W/m 29,0 km/h (5 Bft) 100,00 %
25.10.2019 13:58 17,0 C 18,3 C 15,6 C 72 % 1020,5 hPa 0,0 l/m 0 min 0 min 183 W/m 29,0 km/h (5 Bft) 100,00 %
25.10.2019 14:00 16,9 C 17,8 C 15,6 C 72 % 1020,5 hPa 0,0 l/m 2 min 0 min 271 W/m 29,0 km/h (5 Bft) 99,02 %
25.10.2019 14:04 16,8 C 18,3 C 15,6 C 72 % 1020,3 hPa 0,0 l/m 4 min 0 min 358 W/m 29,0 km/h (5 Bft) 100,00 %
25.10.2019 14:06 16,8 C 18,3 C 15,6 C 72 % 1020,3 hPa 0,0 l/m 2 min 0 min 388 W/m 32,2 km/h (5 Bft) 100,00 %
25.10.2019 14:08 16,8 C 19,4 C 15,6 C 72 % 1020,3 hPa 0,0 l/m 2 min 0 min 429 W/m 32,2 km/h (5 Bft) 100,00 %
25.10.2019 14:10 16,8 C 18,9 C 15,6 C 72 % 1020,3 hPa 0,0 l/m 2 min 0 min 454 W/m 35,4 km/h (5 Bft) 100,00 %
25.10.2019 14:14 16,9 C 19,4 C 16,1 C 72 % 1020,3 hPa 0,0 l/m 4 min 0 min 466 W/m 29,0 km/h (5 Bft) 100,00 %
25.10.2019 14:18 16,9 C 20,6 C 16,1 C 72 % 1020,3 hPa 0,0 l/m 4 min 0 min 450 W/m 19,3 km/h (3 Bft) 98,96 %
25.10.2019 14:20 17,0 C 20,0 C 16,1 C 72 % 1020,2 hPa 0,0 l/m 2 min 0 min 448 W/m 19,3 km/h (3 Bft) 98,96 %
25.10.2019 14:22 17,1 C 19,4 C 16,1 C 71 % 1020,3 hPa 0,0 l/m 2 min 0 min 451 W/m 32,2 km/h (5 Bft) 96,00 %
25.10.2019 14:24 17,1 C 19,4 C 16,1 C 71 % 1020,2 hPa 0,0 l/m 2 min 0 min 459 W/m 22,5 km/h (4 Bft) 100,00 %
25.10.2019 14:28 17,1 C 19,4 C 16,1 C 71 % 1020,2 hPa 0,0 l/m 4 min 0 min 480 W/m 19,3 km/h (3 Bft) 96,91 %
25.10.2019 14:32 17,2 C 17,8 C 16,1 C 71 % 1020,3 hPa 0,0 l/m 4 min 0 min 317 W/m 25,7 km/h (4 Bft) 97,06 %
25.10.2019 14:34 17,2 C 16,7 C 15,6 C 70 % 1020,2 hPa 0,0 l/m 0 min 0 min 151 W/m 32,2 km/h (5 Bft) 97,06 %
25.10.2019 14:36 17,1 C 17,2 C 15,6 C 70 % 1020,2 hPa 0,0 l/m 0 min 0 min 139 W/m 32,2 km/h (5 Bft) 96,39 %
25.10.2019 14:38 17,1 C 18,3 C 15,6 C 72 % 1020,1 hPa 0,0 l/m 0 min 0 min 171 W/m 22,5 km/h (4 Bft) 97,83 %
25.10.2019 14:42 17,1 C 19,4 C 16,1 C 72 % 1020,1 hPa 0,0 l/m 4 min 0 min 392 W/m 19,3 km/h (3 Bft) 95,60 %
25.10.2019 14:46 17,2 C 20,0 C 16,1 C 71 % 1020,1 hPa 0,0 l/m 4 min 0 min 416 W/m 35,4 km/h (5 Bft) 95,37 %
25.10.2019 14:50 17,2 C 19,4 C 16,1 C 71 % 1020,1 hPa 0,0 l/m 4 min 0 min 291 W/m 22,5 km/h (4 Bft) 91,86 %
25.10.2019 14:52 17,2 C 19,4 C 16,1 C 71 % 1020,2 hPa 0,0 l/m 2 min 0 min 390 W/m 22,5 km/h (4 Bft) 95,74 %
25.10.2019 14:56 17,2 C 18,9 C 16,1 C 70 % 1020,1 hPa 0,0 l/m 4 min 0 min 328 W/m 29,0 km/h (5 Bft) 95,83 %
25.10.2019 15:00 17,2 C 20,0 C 16,1 C 70 % 1019,9 hPa 0,0 l/m 4 min 0 min 359 W/m 25,7 km/h (4 Bft) 94,62 %
25.10.2019 15:04 17,3 C 18,9 C 16,1 C 69 % 1019,8 hPa 0,0 l/m 4 min 0 min 338 W/m 25,7 km/h (4 Bft) 95,92 %
25.10.2019 15:08 17,3 C 19,4 C 15,6 C 69 % 1019,8 hPa 0,0 l/m 4 min 0 min 360 W/m 25,7 km/h (4 Bft) 94,62 %
25.10.2019 15:12 17,3 C 19,4 C 16,1 C 69 % 1019,8 hPa 0,0 l/m 4 min 0 min 360 W/m 29,0 km/h (5 Bft) 96,51 %
25.10.2019 15:14 17,3 C 20,0 C 16,1 C 69 % 1019,7 hPa 0,0 l/m 2 min 0 min 377 W/m 22,5 km/h (4 Bft) 97,87 %
25.10.2019 15:18 17,3 C 19,4 C 16,1 C 69 % 1019,7 hPa 0,0 l/m 4 min 0 min 363 W/m 32,2 km/h (5 Bft) 95,88 %
25.10.2019 15:22 17,3 C 19,4 C 16,1 C 69 % 1019,7 hPa 0,0 l/m 4 min 0 min 365 W/m 25,7 km/h (4 Bft) 93,68 %
25.10.2019 15:24 17,3 C 19,4 C 16,1 C 69 % 1019,8 hPa 0,0 l/m 2 min 0 min 341 W/m 16,1 km/h (3 Bft) 93,68 %
25.10.2019 15:26 17,3 C 19,4 C 16,1 C 69 % 1019,8 hPa 0,0 l/m 2 min 0 min 319 W/m 16,1 km/h (3 Bft) 96,55 %
25.10.2019 15:28 17,3 C 18,9 C 16,1 C 68 % 1019,7 hPa 0,0 l/m 2 min 0 min 289 W/m 22,5 km/h (4 Bft) 97,87 %
25.10.2019 15:32 17,3 C 18,9 C 15,6 C 68 % 1019,7 hPa 0,0 l/m 4 min 0 min 321 W/m 32,2 km/h (5 Bft) 97,92 %
25.10.2019 15:36 17,2 C 18,9 C 16,1 C 67 % 1019,6 hPa 0,0 l/m 4 min 0 min 305 W/m 29,0 km/h (5 Bft) 97,89 %
25.10.2019 15:38 17,3 C 18,9 C 16,1 C 67 % 1019,7 hPa 0,0 l/m 2 min 0 min 294 W/m 12,9 km/h (3 Bft) 97,89 %
25.10.2019 15:40 17,3 C 18,9 C 15,6 C 67 % 1019,6 hPa 0,0 l/m 2 min 0 min 280 W/m 25,7 km/h (4 Bft) 96,91 %
25.10.2019 15:42 17,2 C 18,3 C 15,6 C 67 % 1019,6 hPa 0,0 l/m 2 min 0 min 235 W/m 22,5 km/h (4 Bft) 95,74 %
25.10.2019 15:46 17,2 C 18,3 C 15,6 C 67 % 1019,6 hPa 0,0 l/m 4 min 0 min 248 W/m 19,3 km/h (3 Bft) 95,96 %
25.10.2019 15:50 17,2 C 17,8 C 15,6 C 67 % 1019,6 hPa 0,0 l/m 4 min 0 min 234 W/m 25,7 km/h (4 Bft) 97,59 %
25.10.2019 15:52 17,1 C 17,8 C 15,6 C 67 % 1019,6 hPa 0,0 l/m 2 min 0 min 232 W/m 22,5 km/h (4 Bft) 97,59 %
25.10.2019 15:54 17,1 C 18,3 C 15,6 C 68 % 1019,6 hPa 0,0 l/m 2 min 0 min 245 W/m 22,5 km/h (4 Bft) 97,94 %
25.10.2019 15:56 17,1 C 17,8 C 15,6 C 68 % 1019,7 hPa 0,0 l/m 2 min 0 min 235 W/m 22,5 km/h (4 Bft) 97,87 %
25.10.2019 16:00 17,1 C 17,8 C 15,6 C 68 % 1019,7 hPa 0,0 l/m 4 min 0 min 208 W/m 29,0 km/h (5 Bft) 97,92 %
25.10.2019 16:02 17,1 C 17,8 C 15,6 C 68 % 1019,7 hPa 0,0 l/m 2 min 0 min 217 W/m 16,1 km/h (3 Bft) 97,87 %
25.10.2019 16:06 17,1 C 17,8 C 15,6 C 68 % 1019,6 hPa 0,0 l/m 4 min 0 min 226 W/m 25,7 km/h (4 Bft) 96,84 %
25.10.2019 16:10 17,1 C 18,3 C 15,6 C 69 % 1019,7 hPa 0,0 l/m 4 min 0 min 214 W/m 19,3 km/h (3 Bft) 97,85 %
25.10.2019 16:12 17,1 C 18,3 C 15,6 C 69 % 1019,7 hPa 0,0 l/m 2 min 0 min 207 W/m 22,5 km/h (4 Bft) 97,85 %
25.10.2019 16:14 17,1 C 18,3 C 15,6 C 69 % 1019,7 hPa 0,0 l/m 2 min 0 min 212 W/m 22,5 km/h (4 Bft) 98,96 %
25.10.2019 16:18 17,1 C 18,3 C 15,6 C 70 % 1019,7 hPa 0,0 l/m 4 min 0 min 217 W/m 12,9 km/h (3 Bft) 74,03 %
25.10.2019 16:22 17,1 C 18,3 C 15,6 C 70 % 1019,7 hPa 0,0 l/m 4 min 0 min 178 W/m 16,1 km/h (3 Bft) 100,00 %
25.10.2019 16:26 17,1 C 17,8 C 15,6 C 70 % 1019,8 hPa 0,0 l/m 4 min 0 min 188 W/m 22,5 km/h (4 Bft) 98,96 %
25.10.2019 16:30 17,1 C 17,8 C 15,6 C 70 % 1019,7 hPa 0,0 l/m 4 min 0 min 200 W/m 19,3 km/h (3 Bft) 100,00 %
25.10.2019 16:32 17,1 C 18,3 C 15,6 C 70 % 1019,6 hPa 0,0 l/m 2 min 0 min 176 W/m 16,1 km/h (3 Bft) 100,00 %
25.10.2019 16:34 17,1 C 18,3 C 15,6 C 70 % 1019,6 hPa 0,0 l/m 2 min 0 min 173 W/m 16,1 km/h (3 Bft) 100,00 %
25.10.2019 16:36 17,1 C 18,3 C 15,6 C 70 % 1019,6 hPa 0,0 l/m 2 min 0 min 168 W/m 16,1 km/h (3 Bft) 100,00 %
25.10.2019 16:40 17,1 C 17,8 C 15,6 C 70 % 1019,8 hPa 0,0 l/m 4 min 0 min 167 W/m 19,3 km/h (3 Bft) 100,00 %
25.10.2019 16:44 17,1 C 18,3 C 15,6 C 70 % 1019,8 hPa 0,0 l/m 4 min 0 min 163 W/m 12,9 km/h (3 Bft) 100,00 %
25.10.2019 16:46 17,1 C 18,3 C 15,6 C 71 % 1019,8 hPa 0,0 l/m 2 min 0 min 144 W/m 12,9 km/h (3 Bft) 100,00 %
25.10.2019 16:48 17,1 C 17,8 C 15,6 C 71 % 1019,8 hPa 0,0 l/m 2 min 0 min 147 W/m 12,9 km/h (3 Bft) 100,00 %
25.10.2019 16:50 17,1 C 17,8 C 15,6 C 71 % 1019,8 hPa 0,0 l/m 2 min 0 min 135 W/m 12,9 km/h (3 Bft) 100,00 %
25.10.2019 16:54 17,1 C 16,7 C 15,6 C 70 % 1019,7 hPa 0,0 l/m 4 min 0 min 102 W/m 22,5 km/h (4 Bft) 98,96 %
25.10.2019 16:58 17,0 C 16,7 C 15,0 C 70 % 1019,6 hPa 0,0 l/m 0 min 0 min 84 W/m 16,1 km/h (3 Bft) 100,00 %
25.10.2019 17:02 17,0 C 16,1 C 15,0 C 70 % 1019,5 hPa 0,0 l/m 0 min 0 min 80 W/m 12,9 km/h (3 Bft) 99,01 %
25.10.2019 17:04 16,9 C 16,1 C 15,0 C 70 % 1019,4 hPa 0,0 l/m 0 min 0 min 76 W/m 6,4 km/h (2 Bft) 100,00 %
25.10.2019 17:08 16,9 C 16,1 C 15,0 C 69 % 1019,4 hPa 0,0 l/m 0 min 0 min 71 W/m 25,7 km/h (4 Bft) 98,75 %
25.10.2019 17:12 16,8 C 16,1 C 15,0 C 69 % 1019,4 hPa 0,0 l/m 0 min 0 min 69 W/m 19,3 km/h (3 Bft) 98,02 %
25.10.2019 17:14 16,8 C 16,1 C 15,0 C 70 % 1019,4 hPa 0,0 l/m 0 min 0 min 63 W/m 12,9 km/h (3 Bft) 98,02 %
25.10.2019 17:16 16,8 C 16,1 C 15,0 C 70 % 1019,4 hPa 0,0 l/m 0 min 0 min 63 W/m 16,1 km/h (3 Bft) 97,83 %
25.10.2019 17:20 16,7 C 16,1 C 15,0 C 70 % 1019,4 hPa 0,0 l/m 0 min 0 min 60 W/m 16,1 km/h (3 Bft) 95,79 %
25.10.2019 17:22 16,7 C 15,6 C 15,0 C 70 % 1019,5 hPa 0,0 l/m 0 min 0 min 56 W/m 19,3 km/h (3 Bft) 95,79 %
25.10.2019 17:24 16,7 C 15,6 C 15,0 C 70 % 1019,5 hPa 0,0 l/m 0 min 0 min 56 W/m 19,3 km/h (3 Bft) 95,00 %
25.10.2019 17:28 16,6 C 15,6 C 15,0 C 71 % 1019,5 hPa 0,0 l/m 0 min 0 min 51 W/m 6,4 km/h (2 Bft) 95,70 %
25.10.2019 17:32 16,6 C 15,6 C 15,0 C 71 % 1019,5 hPa 0,0 l/m 0 min 0 min 47 W/m 16,1 km/h (3 Bft) 94,25 %
25.10.2019 17:36 16,6 C 15,6 C 14,4 C 71 % 1019,5 hPa 0,0 l/m 0 min 0 min 43 W/m 6,4 km/h (2 Bft) 94,44 %
25.10.2019 17:40 16,5 C 15,6 C 14,4 C 72 % 1019,5 hPa 0,0 l/m 0 min 4 min 39 W/m 12,9 km/h (3 Bft) 97,00 %
25.10.2019 17:42 16,4 C 15,0 C 14,4 C 72 % 1019,4 hPa 0,0 l/m 0 min 0 min 35 W/m 3,2 km/h (1 Bft) 97,00 %
25.10.2019 17:44 16,4 C 15,0 C 14,4 C 72 % 1019,3 hPa 0,0 l/m 0 min 0 min 35 W/m 3,2 km/h (1 Bft) 94,51 %
25.10.2019 17:48 16,4 C 15,0 C 14,4 C 72 % 1019,2 hPa 0,0 l/m 0 min 0 min 30 W/m 6,4 km/h (2 Bft) 95,83 %
25.10.2019 17:50 16,3 C 15,0 C 14,4 C 72 % 1019,3 hPa 0,0 l/m 0 min 0 min 26 W/m 6,4 km/h (2 Bft) 95,83 %
25.10.2019 17:52 16,3 C 15,0 C 14,4 C 72 % 1019,2 hPa 0,0 l/m 0 min 0 min 26 W/m 6,4 km/h (2 Bft) 95,51 %
25.10.2019 17:54 16,3 C 15,0 C 14,4 C 72 % 1019,2 hPa 0,0 l/m 0 min 0 min 23 W/m 6,4 km/h (2 Bft) 95,65 %
25.10.2019 17:58 16,2 C 15,0 C 14,4 C 73 % 1019,0 hPa 0,0 l/m 0 min 0 min 19 W/m 16,1 km/h (3 Bft) 94,79 %
25.10.2019 18:02 16,1 C 14,4 C 13,9 C 73 % 1019,0 hPa 0,0 l/m 0 min 0 min 16 W/m 6,4 km/h (2 Bft) 94,12 %
25.10.2019 18:04 16,1 C 14,4 C 13,9 C 73 % 1018,9 hPa 0,0 l/m 0 min 0 min 12 W/m 12,9 km/h (3 Bft) 94,12 %
25.10.2019 18:06 16,1 C 14,4 C 13,9 C 73 % 1018,9 hPa 0,0 l/m 0 min 0 min 12 W/m 16,1 km/h (3 Bft) 98,81 %
25.10.2019 18:08 16,0 C 14,4 C 13,9 C 74 % 1018,9 hPa 0,0 l/m 0 min 0 min 10 W/m 3,2 km/h (1 Bft) 100,00 %
25.10.2019 18:22 15,8 C 14,4 C 13,9 C 75 % 1019,0 hPa 0,0 l/m 0 min 0 min 0 W/m 3,2 km/h (1 Bft) 98,00 %
25.10.2019 18:24 15,8 C 14,4 C 13,9 C 76 % 1019,0 hPa 0,0 l/m 0 min 0 min 0 W/m 3,2 km/h (1 Bft) 97,87 %
25.10.2019 18:26 15,7 C 14,4 C 13,9 C 76 % 1019,1 hPa 0,0 l/m 0 min 0 min 0 W/m 0,0 km/h (0 Bft) 93,75 %
25.10.2019 18:28 15,7 C 14,4 C 13,9 C 76 % 1019,1 hPa 0,0 l/m 0 min 0 min 0 W/m 3,2 km/h (1 Bft) 97,83 %
25.10.2019 18:30 15,6 C 14,4 C 13,9 C 76 % 1019,1 hPa 0,0 l/m 0 min 0 min 0 W/m 3,2 km/h (1 Bft) 97,87 %
25.10.2019 18:32 15,6 C 14,4 C 13,9 C 77 % 1019,1 hPa 0,0 l/m 0 min 0 min 0 W/m 6,4 km/h (2 Bft) 97,87 %
25.10.2019 18:34 15,6 C 14,4 C 13,9 C 77 % 1019,0 hPa 0,0 l/m 0 min 0 min 0 W/m 6,4 km/h (2 Bft) 97,87 %
25.10.2019 18:36 15,6 C 14,4 C 13,9 C 77 % 1018,9 hPa 0,0 l/m 0 min 0 min 0 W/m 6,4 km/h (2 Bft) 97,87 %
25.10.2019 18:38 15,5 C 14,4 C 13,9 C 77 % 1019,0 hPa 0,0 l/m 0 min 0 min 0 W/m 3,2 km/h (1 Bft) 98,11 %
25.10.2019 18:40 15,5 C 14,4 C 13,9 C 77 % 1019,0 hPa 0,0 l/m 0 min 0 min 0 W/m 3,2 km/h (1 Bft) 98,00 %
25.10.2019 18:42 15,4 C 14,4 C 13,9 C 77 % 1018,9 hPa 0,0 l/m 0 min 0 min 0 W/m 12,9 km/h (3 Bft) 97,87 %
25.10.2019 18:44 15,4 C 14,4 C 13,9 C 77 % 1018,9 hPa 0,0 l/m 0 min 0 min 0 W/m 12,9 km/h (3 Bft) 97,30 %
25.10.2019 18:46 15,4 C 14,4 C 13,9 C 77 % 1018,9 hPa 0,0 l/m 0 min 0 min 0 W/m 6,4 km/h (2 Bft) 93,62 %
25.10.2019 18:48 15,4 C 14,4 C 13,9 C 77 % 1018,9 hPa 0,0 l/m 0 min 0 min 0 W/m 12,9 km/h (3 Bft) 97,87 %
25.10.2019 18:50 15,4 C 14,4 C 13,9 C 77 % 1018,9 hPa 0,0 l/m 0 min 0 min 0 W/m 12,9 km/h (3 Bft) 97,87 %
25.10.2019 18:52 15,4 C 14,4 C 13,9 C 77 % 1018,8 hPa 0,0 l/m 0 min 0 min 0 W/m 6,4 km/h (2 Bft) 96,23 %
25.10.2019 18:54 15,4 C 14,4 C 13,9 C 77 % 1018,9 hPa 0,0 l/m 0 min 0 min 0 W/m 16,1 km/h (3 Bft) 98,00 %
25.10.2019 18:56 15,4 C 14,4 C 13,9 C 77 % 1018,9 hPa 0,0 l/m 0 min 0 min 0 W/m 6,4 km/h (2 Bft) 97,30 %
25.10.2019 18:58 15,4 C 14,4 C 13,9 C 77 % 1018,9 hPa 0,0 l/m 0 min 0 min 0 W/m 6,4 km/h (2 Bft) 93,62 %
25.10.2019 19:00 15,4 C 14,4 C 13,9 C 77 % 1018,9 hPa 0,0 l/m 0 min 0 min 0 W/m 6,4 km/h (2 Bft) 98,11 %
25.10.2019 19:02 15,4 C 14,4 C 13,9 C 77 % 1018,9 hPa 0,0 l/m 0 min 0 min 0 W/m 6,4 km/h (2 Bft) 97,87 %
25.10.2019 19:04 15,4 C 14,4 C 13,9 C 77 % 1018,9 hPa 0,0 l/m 0 min 0 min 0 W/m 3,2 km/h (1 Bft) 100,00 %
25.10.2019 19:06 15,4 C 14,4 C 13,9 C 77 % 1018,8 hPa 0,0 l/m 0 min 0 min 0 W/m 6,4 km/h (2 Bft) 100,00 %
25.10.2019 19:08 15,4 C 14,4 C 13,9 C 77 % 1018,8 hPa 0,0 l/m 0 min 0 min 0 W/m 12,9 km/h (3 Bft) 97,87 %
25.10.2019 19:10 15,3 C 13,9 C 13,9 C 77 % 1018,9 hPa 0,0 l/m 0 min 0 min 0 W/m 6,4 km/h (2 Bft) 100,00 %
25.10.2019 19:12 15,3 C 13,9 C 13,3 C 77 % 1018,8 hPa 0,0 l/m 0 min 0 min 0 W/m 3,2 km/h (1 Bft) 100,00 %
25.10.2019 19:14 15,3 C 13,9 C 13,3 C 77 % 1018,8 hPa 0,0 l/m 0 min 0 min 0 W/m 12,9 km/h (3 Bft) 100,00 %
25.10.2019 19:16 15,3 C 13,9 C 13,3 C 77 % 1018,8 hPa 0,0 l/m 0 min 0 min 0 W/m 6,4 km/h (2 Bft) 100,00 %
25.10.2019 19:18 15,3 C 13,9 C 13,3 C 77 % 1018,9 hPa 0,0 l/m 0 min 0 min 0 W/m 6,4 km/h (2 Bft) 100,00 %
25.10.2019 19:20 15,3 C 13,9 C 13,3 C 77 % 1018,9 hPa 0,0 l/m 0 min 0 min 0 W/m 6,4 km/h (2 Bft) 100,00 %
25.10.2019 19:22 15,2 C 13,9 C 13,3 C 77 % 1018,9 hPa 0,0 l/m 0 min 0 min 0 W/m 6,4 km/h (2 Bft) 97,87 %
25.10.2019 19:24 15,2 C 13,9 C 13,3 C 77 % 1018,9 hPa 0,0 l/m 0 min 0 min 0 W/m 19,3 km/h (3 Bft) 100,00 %
25.10.2019 19:26 15,2 C 13,9 C 13,3 C 77 % 1018,9 hPa 0,0 l/m 0 min 0 min 0 W/m 6,4 km/h (2 Bft) 100,00 %
25.10.2019 19:28 15,1 C 13,9 C 13,3 C 77 % 1019,0 hPa 0,0 l/m 0 min 0 min 0 W/m 3,2 km/h (1 Bft) 97,87 %
25.10.2019 19:30 15,1 C 13,9 C 13,3 C 77 % 1018,9 hPa 0,0 l/m 0 min 0 min 0 W/m 3,2 km/h (1 Bft) 97,87 %
25.10.2019 19:32 15,1 C 13,9 C 13,3 C 77 % 1019,0 hPa 0,0 l/m 0 min 0 min 0 W/m 12,9 km/h (3 Bft) 100,00 %
25.10.2019 19:34 15,1 C 13,9 C 13,3 C 77 % 1019,0 hPa 0,0 l/m 0 min 0 min 0 W/m 3,2 km/h (1 Bft) 100,00 %
25.10.2019 19:36 15,1 C 13,9 C 13,3 C 77 % 1019,0 hPa 0,0 l/m 0 min 0 min 0 W/m 6,4 km/h (2 Bft) 100,00 %
25.10.2019 19:38 15,0 C 13,9 C 13,3 C 77 % 1019,0 hPa 0,0 l/m 0 min 0 min 0 W/m 12,9 km/h (3 Bft) 100,00 %
25.10.2019 19:40 15,0 C 13,9 C 13,3 C 77 % 1019,0 hPa 0,0 l/m 0 min 0 min 0 W/m 6,4 km/h (2 Bft) 100,00 %
25.10.2019 19:42 14,9 C 13,9 C 13,3 C 77 % 1019,0 hPa 0,0 l/m 0 min 0 min 0 W/m 12,9 km/h (3 Bft) 100,00 %
25.10.2019 19:44 14,9 C 13,9 C 13,3 C 77 % 1019,0 hPa 0,0 l/m 0 min 0 min 0 W/m 16,1 km/h (3 Bft) 100,00 %
25.10.2019 19:46 14,9 C 13,9 C 13,9 C 77 % 1019,0 hPa 0,0 l/m 0 min 0 min 0 W/m 16,1 km/h (3 Bft) 97,87 %
25.10.2019 19:48 14,9 C 13,9 C 13,3 C 77 % 1019,0 hPa 0,0 l/m 0 min 0 min 0 W/m 6,4 km/h (2 Bft) 100,00 %
25.10.2019 19:50 14,9 C 13,9 C 13,3 C 78 % 1019,0 hPa 0,0 l/m 0 min 0 min 0 W/m 12,9 km/h (3 Bft) 100,00 %
25.10.2019 19:52 14,9 C 14,4 C 13,9 C 78 % 1018,9 hPa 0,0 l/m 0 min 0 min 0 W/m 16,1 km/h (3 Bft) 100,00 %
25.10.2019 19:54 14,9 C 14,4 C 13,9 C 78 % 1018,9 hPa 0,0 l/m 0 min 0 min 0 W/m 12,9 km/h (3 Bft) 100,00 %
25.10.2019 19:56 14,9 C 14,4 C 13,9 C 78 % 1018,9 hPa 0,0 l/m 0 min 0 min 0 W/m 6,4 km/h (2 Bft) 97,87 %
25.10.2019 19:58 14,9 C 14,4 C 13,9 C 78 % 1018,9 hPa 0,0 l/m 0 min 0 min 0 W/m 12,9 km/h (3 Bft) 100,00 %
25.10.2019 20:00 14,9 C 14,4 C 13,9 C 78 % 1018,9 hPa 0,0 l/m 0 min 0 min 0 W/m 6,4 km/h (2 Bft) 100,00 %
25.10.2019 20:02 14,9 C 14,4 C 13,9 C 78 % 1018,9 hPa 0,0 l/m 0 min 0 min 0 W/m 12,9 km/h (3 Bft) 100,00 %
25.10.2019 20:04 14,9 C 14,4 C 13,9 C 78 % 1018,9 hPa 0,0 l/m 0 min 0 min 0 W/m 19,3 km/h (3 Bft) 100,00 %
25.10.2019 20:06 14,9 C 14,4 C 13,9 C 78 % 1018,9 hPa 0,0 l/m 0 min 0 min 0 W/m 6,4 km/h (2 Bft) 100,00 %
25.10.2019 20:08 15,0 C 14,4 C 13,9 C 78 % 1018,8 hPa 0,0 l/m 0 min 0 min 0 W/m 12,9 km/h (3 Bft) 100,00 %
25.10.2019 20:10 15,0 C 14,4 C 13,9 C 78 % 1018,9 hPa 0,0 l/m 0 min 0 min 0 W/m 16,1 km/h (3 Bft) 97,92 %
25.10.2019 20:12 15,0 C 14,4 C 13,9 C 78 % 1018,8 hPa 0,0 l/m 0 min 0 min 0 W/m 12,9 km/h (3 Bft) 97,87 %
25.10.2019 20:14 15,0 C 14,4 C 13,9 C 78 % 1018,7 hPa 0,0 l/m 0 min 0 min 0 W/m 12,9 km/h (3 Bft) 100,00 %
25.10.2019 20:16 15,1 C 14,4 C 13,9 C 78 % 1018,8 hPa 0,0 l/m 0 min 0 min 0 W/m 12,9 km/h (3 Bft) 95,83 %
25.10.2019 20:18 15,1 C 14,4 C 13,9 C 78 % 1018,7 hPa 0,0 l/m 0 min 0 min 0 W/m 16,1 km/h (3 Bft) 95,74 %
25.10.2019 20:20 15,1 C 14,4 C 13,9 C 78 % 1018,7 hPa 0,0 l/m 0 min 0 min 0 W/m 6,4 km/h (2 Bft) 97,83 %
25.10.2019 20:22 15,1 C 14,4 C 13,9 C 78 % 1018,8 hPa 0,0 l/m 0 min 0 min 0 W/m 25,7 km/h (4 Bft) 95,74 %
25.10.2019 20:24 15,1 C 14,4 C 13,9 C 78 % 1018,8 hPa 0,0 l/m 0 min 0 min 0 W/m 16,1 km/h (3 Bft) 97,87 %
25.10.2019 20:26 15,1 C 14,4 C 13,9 C 78 % 1018,8 hPa 0,0 l/m 0 min 0 min 0 W/m 16,1 km/h (3 Bft) 97,87 %
25.10.2019 20:28 15,1 C 14,4 C 13,9 C 78 % 1018,8 hPa 0,0 l/m 0 min 0 min 0 W/m 19,3 km/h (3 Bft) 97,87 %
25.10.2019 20:30 15,1 C 14,4 C 13,9 C 78 % 1018,7 hPa 0,0 l/m 0 min 0 min 0 W/m 12,9 km/h (3 Bft) 97,87 %
25.10.2019 20:32 15,1 C 14,4 C 13,9 C 78 % 1018,7 hPa 0,0 l/m 0 min 0 min 0 W/m 16,1 km/h (3 Bft) 97,83 %
25.10.2019 20:34 15,1 C 14,4 C 13,9 C 78 % 1018,7 hPa 0,0 l/m 0 min 0 min 0 W/m 6,4 km/h (2 Bft) 97,87 %
25.10.2019 20:36 15,1 C 14,4 C 13,9 C 78 % 1018,6 hPa 0,0 l/m 0 min 0 min 0 W/m 16,1 km/h (3 Bft) 95,74 %
25.10.2019 20:38 15,1 C 14,4 C 13,9 C 78 % 1018,6 hPa 0,0 l/m 0 min 0 min 0 W/m 16,1 km/h (3 Bft) 97,87 %
25.10.2019 20:40 15,1 C 14,4 C 13,9 C 78 % 1018,7 hPa 0,0 l/m 0 min 0 min 0 W/m 6,4 km/h (2 Bft) 97,56 %
25.10.2019 20:42 15,1 C 14,4 C 13,9 C 78 % 1018,6 hPa 0,0 l/m 0 min 0 min 0 W/m 16,1 km/h (3 Bft) 97,92 %
25.10.2019 20:44 15,1 C 14,4 C 13,9 C 78 % 1018,6 hPa 0,0 l/m 0 min 0 min 0 W/m 16,1 km/h (3 Bft) 95,83 %
25.10.2019 20:46 15,1 C 14,4 C 13,9 C 78 % 1018,7 hPa 0,0 l/m 0 min 0 min 0 W/m 6,4 km/h (2 Bft) 93,75 %
25.10.2019 20:48 15,1 C 14,4 C 13,9 C 78 % 1018,8 hPa 0,0 l/m 0 min 0 min 0 W/m 12,9 km/h (3 Bft) 93,62 %
25.10.2019 20:50 15,1 C 14,4 C 13,9 C 78 % 1018,7 hPa 0,0 l/m 0 min 0 min 0 W/m 16,1 km/h (3 Bft) 95,83 %
25.10.2019 20:52 15,1 C 14,4 C 13,9 C 78 % 1018,6 hPa 0,0 l/m 0 min 0 min 0 W/m 3,2 km/h (1 Bft) 95,83 %
25.10.2019 20:54 15,1 C 14,4 C 13,9 C 78 % 1018,6 hPa 0,0 l/m 0 min 0 min 0 W/m 6,4 km/h (2 Bft) 97,87 %
25.10.2019 20:56 15,1 C 14,4 C 13,9 C 78 % 1018,6 hPa 0,0 l/m 0 min 0 min 0 W/m 6,4 km/h (2 Bft) 95,65 %
25.10.2019 20:58 15,1 C 14,4 C 13,9 C 79 % 1018,7 hPa 0,0 l/m 0 min 0 min 0 W/m 6,4 km/h (2 Bft) 95,74 %
25.10.2019 21:00 15,1 C 14,4 C 13,9 C 79 % 1018,7 hPa 0,0 l/m 0 min 0 min 0 W/m 12,9 km/h (3 Bft) 91,49 %
25.10.2019 21:02 15,1 C 14,4 C 13,9 C 79 % 1018,7 hPa 0,0 l/m 0 min 0 min 0 W/m 6,4 km/h (2 Bft) 93,62 %
25.10.2019 21:04 15,1 C 14,4 C 13,9 C 79 % 1018,6 hPa 0,0 l/m 0 min 0 min 0 W/m 16,1 km/h (3 Bft) 95,74 %
25.10.2019 21:06 15,1 C 14,4 C 13,9 C 79 % 1018,5 hPa 0,0 l/m 0 min 0 min 0 W/m 12,9 km/h (3 Bft) 95,74 %
25.10.2019 21:08 15,1 C 14,4 C 13,9 C 79 % 1018,5 hPa 0,0 l/m 0 min 0 min 0 W/m 12,9 km/h (3 Bft) 95,65 %
25.10.2019 21:10 15,1 C 14,4 C 13,9 C 79 % 1018,5 hPa 0,0 l/m 0 min 0 min 0 W/m 19,3 km/h (3 Bft) 91,49 %
25.10.2019 21:12 15,1 C 14,4 C 13,9 C 79 % 1018,5 hPa 0,0 l/m 0 min 0 min 0 W/m 16,1 km/h (3 Bft) 93,62 %
25.10.2019 21:14 15,1 C 14,4 C 13,9 C 79 % 1018,5 hPa 0,0 l/m 0 min 0 min 0 W/m 19,3 km/h (3 Bft) 53,33 %
25.10.2019 21:16 15,1 C 14,4 C 13,9 C 79 % 1018,4 hPa 0,0 l/m 0 min 0 min 0 W/m 16,1 km/h (3 Bft) 97,78 %
25.10.2019 21:18 15,1 C 14,4 C 13,9 C 80 % 1018,4 hPa 0,0 l/m 0 min 0 min 0 W/m 12,9 km/h (3 Bft) 93,48 %
25.10.2019 21:20 15,1 C 14,4 C 13,9 C 80 % 1018,4 hPa 0,0 l/m 0 min 0 min 0 W/m 6,4 km/h (2 Bft) 95,74 %
25.10.2019 21:22 15,1 C 14,4 C 13,9 C 80 % 1018,5 hPa 0,0 l/m 0 min 0 min 0 W/m 9,7 km/h (2 Bft) 95,74 %
25.10.2019 21:24 15,1 C 14,4 C 13,9 C 80 % 1018,5 hPa 0,0 l/m 0 min 0 min 0 W/m 22,5 km/h (4 Bft) 93,62 %
25.10.2019 21:26 15,1 C 14,4 C 13,9 C 80 % 1018,4 hPa 0,0 l/m 0 min 0 min 0 W/m 16,1 km/h (3 Bft) 93,62 %
25.10.2019 21:28 15,1 C 14,4 C 13,9 C 80 % 1018,2 hPa 0,0 l/m 0 min 0 min 0 W/m 22,5 km/h (4 Bft) 95,74 %
25.10.2019 21:30 15,1 C 13,9 C 13,9 C 80 % 1018,2 hPa 0,0 l/m 0 min 0 min 0 W/m 16,1 km/h (3 Bft) 95,65 %
25.10.2019 21:32 15,1 C 13,9 C 13,9 C 80 % 1018,2 hPa 0,0 l/m 0 min 0 min 0 W/m 16,1 km/h (3 Bft) 97,87 %
25.10.2019 21:34 15,1 C 13,9 C 13,9 C 80 % 1018,1 hPa 0,0 l/m 0 min 0 min 0 W/m 9,7 km/h (2 Bft) 100,00 %
25.10.2019 21:36 15,1 C 13,9 C 13,9 C 80 % 1018,2 hPa 0,0 l/m 0 min 0 min 0 W/m 19,3 km/h (3 Bft) 95,74 %
25.10.2019 21:38 15,1 C 13,9 C 13,3 C 80 % 1018,2 hPa 0,0 l/m 0 min 0 min 0 W/m 16,1 km/h (3 Bft) 95,74 %
25.10.2019 21:40 15,1 C 13,9 C 13,3 C 81 % 1018,3 hPa 0,0 l/m 0 min 0 min 0 W/m 16,1 km/h (3 Bft) 93,62 %
25.10.2019 21:42 15,1 C 13,9 C 13,3 C 81 % 1018,4 hPa 0,0 l/m 0 min 0 min 0 W/m 12,9 km/h (3 Bft) 95,65 %
25.10.2019 21:44 15,1 C 13,9 C 13,3 C 81 % 1018,4 hPa 0,0 l/m 0 min 0 min 0 W/m 19,3 km/h (3 Bft) 97,87 %
25.10.2019 21:46 15,1 C 13,9 C 13,3 C 81 % 1018,4 hPa 0,0 l/m 0 min 0 min 0 W/m 19,3 km/h (3 Bft) 97,87 %
25.10.2019 21:48 15,1 C 13,9 C 13,3 C 81 % 1018,3 hPa 0,0 l/m 0 min 0 min 0 W/m 12,9 km/h (3 Bft) 97,87 %
25.10.2019 21:50 15,0 C 13,9 C 13,3 C 81 % 1018,3 hPa 0,0 l/m 0 min 0 min 0 W/m 6,4 km/h (2 Bft) 97,87 %
25.10.2019 21:52 15,0 C 13,9 C 13,3 C 81 % 1018,3 hPa 0,0 l/m 0 min 0 min 0 W/m 12,9 km/h (3 Bft) 97,87 %
25.10.2019 21:54 15,0 C 13,9 C 13,3 C 81 % 1018,3 hPa 0,0 l/m 0 min 0 min 0 W/m 12,9 km/h (3 Bft) 100,00 %
25.10.2019 21:56 14,9 C 13,9 C 13,3 C 81 % 1018,3 hPa 0,0 l/m 0 min 0 min 0 W/m 16,1 km/h (3 Bft) 97,87 %
25.10.2019 21:58 14,9 C 13,9 C 13,3 C 82 % 1018,2 hPa 0,0 l/m 0 min 0 min 0 W/m 16,1 km/h (3 Bft) 100,00 %
25.10.2019 22:00 14,9 C 13,9 C 13,3 C 82 % 1018,2 hPa 0,0 l/m 0 min 0 min 0 W/m 6,4 km/h (2 Bft) 100,00 %
25.10.2019 22:02 14,9 C 13,9 C 13,3 C 82 % 1018,2 hPa 0,0 l/m 0 min 0 min 0 W/m 9,7 km/h (2 Bft) 100,00 %
25.10.2019 22:04 14,9 C 13,9 C 13,3 C 82 % 1018,2 hPa 0,0 l/m 0 min 0 min 0 W/m 12,9 km/h (3 Bft) 100,00 %
25.10.2019 22:06 14,9 C 13,9 C 13,3 C 82 % 1018,2 hPa 0,0 l/m 0 min 0 min 0 W/m 6,4 km/h (2 Bft) 100,00 %
25.10.2019 22:08 14,8 C 13,9 C 13,3 C 82 % 1018,2 hPa 0,0 l/m 0 min 0 min 0 W/m 6,4 km/h (2 Bft) 100,00 %
25.10.2019 22:10 14,8 C 13,9 C 13,3 C 83 % 1018,2 hPa 0,0 l/m 0 min 0 min 0 W/m 16,1 km/h (3 Bft) 100,00 %
25.10.2019 22:12 14,8 C 13,9 C 13,3 C 83 % 1018,2 hPa 0,0 l/m 0 min 0 min 0 W/m 6,4 km/h (2 Bft) 100,00 %
25.10.2019 22:14 14,8 C 13,9 C 13,3 C 83 % 1018,1 hPa 0,0 l/m 0 min 0 min 0 W/m 12,9 km/h (3 Bft) 100,00 %
25.10.2019 22:16 14,8 C 13,9 C 13,3 C 83 % 1018,2 hPa 0,0 l/m 0 min 0 min 0 W/m 12,9 km/h (3 Bft) 100,00 %
25.10.2019 22:18 14,8 C 13,9 C 13,3 C 83 % 1018,1 hPa 0,0 l/m 0 min 0 min 0 W/m 16,1 km/h (3 Bft) 100,00 %
25.10.2019 22:20 14,8 C 13,9 C 13,3 C 83 % 1018,2 hPa 0,0 l/m 0 min 0 min 0 W/m 12,9 km/h (3 Bft) 100,00 %
25.10.2019 22:22 14,8 C 13,9 C 13,3 C 84 % 1018,2 hPa 0,0 l/m 0 min 0 min 0 W/m 16,1 km/h (3 Bft) 97,87 %
25.10.2019 22:24 14,7 C 13,9 C 13,3 C 84 % 1018,1 hPa 0,0 l/m 0 min 0 min 0 W/m 19,3 km/h (3 Bft) 100,00 %
25.10.2019 22:26 14,7 C 13,9 C 13,3 C 84 % 1018,1 hPa 0,0 l/m 0 min 0 min 0 W/m 12,9 km/h (3 Bft) 97,87 %
25.10.2019 22:28 14,7 C 13,9 C 13,3 C 84 % 1018,1 hPa 0,0 l/m 0 min 0 min 0 W/m 16,1 km/h (3 Bft) 100,00 %
25.10.2019 22:30 14,7 C 13,9 C 13,3 C 85 % 1018,1 hPa 0,0 l/m 0 min 0 min 0 W/m 16,1 km/h (3 Bft) 100,00 %
25.10.2019 22:32 14,7 C 13,9 C 13,3 C 85 % 1018,1 hPa 0,0 l/m 0 min 0 min 0 W/m 22,5 km/h (4 Bft) 100,00 %
25.10.2019 22:34 14,7 C 13,9 C 13,3 C 85 % 1018,1 hPa 0,0 l/m 0 min 0 min 0 W/m 12,9 km/h (3 Bft) 100,00 %
25.10.2019 22:36 14,7 C 13,9 C 13,3 C 85 % 1018,1 hPa 0,0 l/m 0 min 0 min 0 W/m 16,1 km/h (3 Bft) 100,00 %
25.10.2019 22:38 14,7 C 13,9 C 13,3 C 85 % 1018,1 hPa 0,0 l/m 0 min 0 min 0 W/m 12,9 km/h (3 Bft) 97,87 %
25.10.2019 22:40 14,7 C 13,9 C 13,3 C 85 % 1018,2 hPa 0,0 l/m 0 min 0 min 0 W/m 16,1 km/h (3 Bft) 100,00 %
25.10.2019 22:42 14,7 C 13,9 C 13,3 C 85 % 1018,3 hPa 0,0 l/m 0 min 0 min 0 W/m 12,9 km/h (3 Bft) 100,00 %
25.10.2019 22:44 14,7 C 13,9 C 13,3 C 85 % 1018,3 hPa 0,0 l/m 0 min 0 min 0 W/m 16,1 km/h (3 Bft) 100,00 %
25.10.2019 22:46 14,7 C 13,9 C 13,3 C 85 % 1018,3 hPa 0,0 l/m 0 min 0 min 0 W/m 12,9 km/h (3 Bft) 97,87 %
25.10.2019 22:48 14,7 C 13,9 C 13,3 C 85 % 1018,2 hPa 0,0 l/m 0 min 0 min 0 W/m 9,7 km/h (2 Bft) 100,00 %
25.10.2019 22:50 14,7 C 13,9 C 13,3 C 85 % 1018,2 hPa 0,0 l/m 0 min 0 min 0 W/m 12,9 km/h (3 Bft) 100,00 %
25.10.2019 22:52 14,7 C 13,9 C 13,3 C 85 % 1018,2 hPa 0,0 l/m 0 min 0 min 0 W/m 16,1 km/h (3 Bft) 100,00 %
25.10.2019 22:54 14,7 C 13,9 C 13,3 C 85 % 1018,2 hPa 0,0 l/m 0 min 0 min 0 W/m 16,1 km/h (3 Bft) 97,87 %
25.10.2019 22:56 14,7 C 13,9 C 13,3 C 85 % 1018,2 hPa 0,0 l/m 0 min 0 min 0 W/m 6,4 km/h (2 Bft) 95,74 %
25.10.2019 22:58 14,7 C 13,3 C 12,8 C 85 % 1018,2 hPa 0,0 l/m 0 min 0 min 0 W/m 12,9 km/h (3 Bft) 95,74 %
25.10.2019 23:00 14,7 C 13,3 C 12,8 C 85 % 1018,2 hPa 0,0 l/m 0 min 0 min 0 W/m 16,1 km/h (3 Bft) 97,87 %
25.10.2019 23:02 14,6 C 13,3 C 12,8 C 85 % 1018,2 hPa 0,0 l/m 0 min 0 min 0 W/m 3,2 km/h (1 Bft) 97,56 %
25.10.2019 23:04 14,6 C 13,3 C 12,8 C 85 % 1018,2 hPa 0,0 l/m 0 min 0 min 0 W/m 12,9 km/h (3 Bft) 98,08 %
25.10.2019 23:06 14,6 C 13,3 C 12,8 C 85 % 1018,2 hPa 0,0 l/m 0 min 0 min 0 W/m 6,4 km/h (2 Bft) 97,87 %
25.10.2019 23:08 14,6 C 13,3 C 12,8 C 85 % 1018,2 hPa 0,0 l/m 0 min 0 min 0 W/m 12,9 km/h (3 Bft) 95,74 %
25.10.2019 23:10 14,6 C 13,3 C 12,8 C 86 % 1018,1 hPa 0,0 l/m 0 min 0 min 0 W/m 12,9 km/h (3 Bft) 97,87 %
25.10.2019 23:12 14,5 C 13,3 C 12,8 C 86 % 1018,2 hPa 0,0 l/m 0 min 0 min 0 W/m 16,1 km/h (3 Bft) 95,74 %
25.10.2019 23:14 14,5 C 13,3 C 12,8 C 86 % 1018,2 hPa 0,0 l/m 0 min 0 min 0 W/m 16,1 km/h (3 Bft) 97,56 %
25.10.2019 23:16 14,4 C 13,3 C 12,8 C 86 % 1018,1 hPa 0,0 l/m 0 min 0 min 0 W/m 16,1 km/h (3 Bft) 97,92 %
25.10.2019 23:18 14,4 C 13,3 C 12,8 C 86 % 1018,2 hPa 0,0 l/m 0 min 0 min 0 W/m 12,9 km/h (3 Bft) 97,92 %
25.10.2019 23:20 14,4 C 13,3 C 12,8 C 85 % 1018,1 hPa 0,0 l/m 0 min 0 min 0 W/m 22,5 km/h (4 Bft) 97,87 %
25.10.2019 23:22 14,3 C 13,3 C 12,8 C 85 % 1018,1 hPa 0,0 l/m 0 min 0 min 0 W/m 19,3 km/h (3 Bft) 97,92 %
25.10.2019 23:24 14,3 C 13,3 C 12,8 C 86 % 1018,1 hPa 0,0 l/m 0 min 0 min 0 W/m 12,9 km/h (3 Bft) 97,92 %
25.10.2019 23:26 14,3 C 13,3 C 12,8 C 86 % 1018,0 hPa 0,0 l/m 0 min 0 min 0 W/m 12,9 km/h (3 Bft) 97,87 %
25.10.2019 23:28 14,3 C 12,8 C 12,8 C 86 % 1018,0 hPa 0,0 l/m 0 min 0 min 0 W/m 3,2 km/h (1 Bft) 97,87 %
25.10.2019 23:30 14,3 C 12,8 C 12,8 C 86 % 1018,0 hPa 0,0 l/m 0 min 0 min 0 W/m 6,4 km/h (2 Bft) 93,62 %
25.10.2019 23:32 14,3 C 12,8 C 12,8 C 86 % 1018,1 hPa 0,0 l/m 0 min 0 min 0 W/m 12,9 km/h (3 Bft) 95,74 %
25.10.2019 23:34 14,3 C 12,8 C 12,8 C 86 % 1018,1 hPa 0,0 l/m 0 min 0 min 0 W/m 12,9 km/h (3 Bft) 95,74 %
25.10.2019 23:36 14,3 C 12,8 C 12,2 C 86 % 1018,1 hPa 0,0 l/m 0 min 0 min 0 W/m 6,4 km/h (2 Bft) 97,87 %
25.10.2019 23:38 14,3 C 12,8 C 12,2 C 86 % 1018,1 hPa 0,0 l/m 0 min 0 min 0 W/m 19,3 km/h (3 Bft) 97,87 %
25.10.2019 23:40 14,3 C 12,8 C 12,2 C 86 % 1018,0 hPa 0,0 l/m 0 min 0 min 0 W/m 12,9 km/h (3 Bft) 97,83 %
25.10.2019 23:42 14,2 C 12,8 C 12,2 C 86 % 1018,0 hPa 0,0 l/m 0 min 0 min 0 W/m 16,1 km/h (3 Bft) 97,62 %
25.10.2019 23:44 14,2 C 12,8 C 12,2 C 86 % 1018,0 hPa 0,0 l/m 0 min 0 min 0 W/m 12,9 km/h (3 Bft) 97,87 %
25.10.2019 23:46 14,1 C 12,8 C 12,2 C 87 % 1018,0 hPa 0,0 l/m 0 min 0 min 0 W/m 12,9 km/h (3 Bft) 100,00 %
25.10.2019 23:48 14,1 C 12,8 C 12,2 C 87 % 1018,0 hPa 0,0 l/m 0 min 0 min 0 W/m 22,5 km/h (4 Bft) 97,92 %
25.10.2019 23:50 14,1 C 12,8 C 12,2 C 87 % 1018,0 hPa 0,0 l/m 0 min 0 min 0 W/m 6,4 km/h (2 Bft) 95,83 %
25.10.2019 23:52 14,1 C 12,8 C 12,2 C 87 % 1018,0 hPa 0,0 l/m 0 min 0 min 0 W/m 12,9 km/h (3 Bft) 100,00 %
25.10.2019 23:54 14,0 C 12,8 C 12,2 C 87 % 1018,0 hPa 0,0 l/m 0 min 0 min 0 W/m 6,4 km/h (2 Bft) 97,83 %
25.10.2019 23:56 14,0 C 12,8 C 12,2 C 87 % 1017,9 hPa 0,0 l/m 0 min 0 min 0 W/m 16,1 km/h (3 Bft) 95,83 %
25.10.2019 23:58 14,0 C 12,8 C 12,2 C 87 % 1017,9 hPa 0,0 l/m 0 min 0 min 0 W/m 12,9 km/h (3 Bft) 97,87 %
_ Min-Zeit 08:30 07:12 08:22 15:36 00:00 - - - - 00:02 00:02
Minimum _ 12,1 C 11,1 C 10,6 C 67 % 1012,6 hPa - - - - 0,0 km/h (0 Bft) 15,38 %
_ Max-Zeit 15:04 13:48 13:28 09:06 12:38 00:00 12:08 17:40 13:52 13:52 00:14
Maximum _ 17,3 C 21,1 C 16,7 C 93 % 1020,8 hPa 0,0 l/m 4 min 4 min 522 W/m 48,3 km/h
S-SO (6 Bft)
100,00 %
Durchschnitt _ 14,8 C 14,6 C 13,5 C 82 % 1017,9 hPa #0,0 l/m #6:26 h #4 min. 236 W/m 15,8 km/h (3 Bft) 97,06 %
© 2019 W. Hausmann